Time,TemperatureF,DewpointF,PressureIn,WindDirection,WindDirectionDegrees,WindSpeedMPH,WindSpeedGustMPH,Humidity,HourlyPrecipIn,Conditions,Clouds,dailyrainin,SolarRadiationWatts/m^2,SoftwareType,DateUTC
2013-08-16 00:01:00,65.9,62.9,30.00,East,94,1.0,2.0,90,0.00,,,0.00,0,WeatherCatV1.15B25,2013-08-16 05:01:00,
2013-08-16 00:06:00,65.9,62.9,30.00,East,94,3.0,4.0,90,0.00,,,0.00,0,WeatherCatV1.15B25,2013-08-16 05:06:00,
2013-08-16 00:11:00,65.8,62.8,30.00,East,94,4.0,6.0,90,0.00,,,0.00,0,WeatherCatV1.15B25,2013-08-16 05:11:00,
2013-08-16 00:16:00,65.8,62.8,30.00,East,98,3.0,4.0,90,0.00,,,0.00,0,WeatherCatV1.15B25,2013-08-16 05:16:00,
2013-08-16 00:19:00,65.8,62.8,30.00,East,98,5.0,5.0,90,0.00,,,0.00,0,WeatherCatV1.15B25,2013-08-16 05:19:00,
2013-08-16 00:21:00,65.8,62.8,30.00,East,98,3.0,5.0,90,0.00,,,0.00,0,WeatherCatV1.15B25,2013-08-16 05:21:00,
2013-08-16 00:24:00,65.8,62.8,30.00,East,99,0.0,4.0,90,0.00,,,0.00,0,WeatherCatV1.15B25,2013-08-16 05:24:00,
2013-08-16 00:25:00,65.8,62.8,30.00,East,99,0.0,4.0,90,0.00,,,0.00,0,WeatherCatV1.15B25,2013-08-16 05:25:00,
2013-08-16 00:26:00,65.8,62.8,30.00,East,99,0.0,1.0,90,0.00,,,0.00,0,WeatherCatV1.15B25,2013-08-16 05:26:00,
2013-08-16 00:29:00,65.8,62.8,30.00,East,100,0.0,3.0,90,0.00,,,0.00,0,WeatherCatV1.15B25,2013-08-16 05:29:00,
2013-08-16 00:30:00,65.8,62.8,30.00,East,100,0.0,3.0,90,0.00,,,0.00,0,WeatherCatV1.15B25,2013-08-16 05:30:00,
2013-08-16 00:31:00,65.9,62.9,30.00,East,99,0.0,1.0,90,0.00,,,0.00,0,WeatherCatV1.15B25,2013-08-16 05:31:00,
2013-08-16 00:34:00,65.8,62.8,30.00,East,99,0.0,6.0,90,0.00,,,0.00,0,WeatherCatV1.15B25,2013-08-16 05:34:00,
2013-08-16 00:35:00,65.8,62.8,30.00,East,99,0.0,6.0,90,0.00,,,0.00,0,WeatherCatV1.15B25,2013-08-16 05:35:00,
2013-08-16 00:36:00,65.8,62.8,30.00,East,100,0.0,0.0,90,0.00,,,0.00,0,WeatherCatV1.15B25,2013-08-16 05:36:00,
2013-08-16 00:37:00,65.8,62.8,30.00,East,100,0.0,0.0,90,0.00,,,0.00,0,WeatherCatV1.15B25,2013-08-16 05:37:00,
2013-08-16 00:40:00,65.8,62.8,30.00,East,99,4.0,5.0,90,0.00,,,0.00,0,WeatherCatV1.15B25,2013-08-16 05:40:00,
2013-08-16 00:41:00,65.8,62.5,30.00,East,100,1.0,5.0,89,0.00,,,0.00,0,WeatherCatV1.15B25,2013-08-16 05:41:00,
2013-08-16 00:42:00,65.8,62.5,30.00,East,99,0.0,4.0,89,0.00,,,0.00,0,WeatherCatV1.15B25,2013-08-16 05:42:00,
2013-08-16 00:46:00,65.8,62.5,30.00,ESE,113,3.0,9.0,89,0.00,,,0.00,0,WeatherCatV1.15B25,2013-08-16 05:46:00,
2013-08-16 00:51:00,65.7,62.4,30.00,ESE,113,0.0,7.0,89,0.00,,,0.00,0,WeatherCatV1.15B25,2013-08-16 05:51:00,
2013-08-16 00:56:00,65.6,62.3,30.00,ESE,115,0.0,7.0,89,0.00,,,0.00,0,WeatherCatV1.15B25,2013-08-16 05:56:00,
2013-08-16 01:01:00,65.5,62.2,30.00,ESE,115,1.0,7.0,89,0.00,,,0.00,0,WeatherCatV1.15B25,2013-08-16 06:01:00,
2013-08-16 01:06:00,65.5,62.2,30.00,ESE,114,0.0,1.0,89,0.00,,,0.00,0,WeatherCatV1.15B25,2013-08-16 06:06:00,
2013-08-16 01:11:00,65.5,62.2,30.00,ESE,115,3.0,3.0,89,0.00,,,0.00,0,WeatherCatV1.15B25,2013-08-16 06:11:00,
2013-08-16 01:16:00,65.4,62.1,30.00,ESE,121,3.0,7.0,89,0.00,,,0.00,0,WeatherCatV1.15B25,2013-08-16 06:16:00,
2013-08-16 01:21:00,65.3,62.0,30.00,ESE,122,4.0,5.0,89,0.00,,,0.00,0,WeatherCatV1.15B25,2013-08-16 06:21:00,
2013-08-16 01:26:00,65.2,61.9,30.00,ESE,122,3.0,6.0,89,0.00,,,0.00,0,WeatherCatV1.15B25,2013-08-16 06:26:00,
2013-08-16 01:31:00,65.1,61.8,30.00,SE,132,0.0,5.0,89,0.00,,,0.00,0,WeatherCatV1.15B25,2013-08-16 06:31:00,
2013-08-16 01:36:00,65.0,62.0,30.00,SE,132,2.0,3.0,90,0.00,,,0.00,0,WeatherCatV1.15B25,2013-08-16 06:36:00,
2013-08-16 01:41:00,65.0,62.0,30.00,SE,132,0.0,2.0,90,0.00,,,0.00,0,WeatherCatV1.15B25,2013-08-16 06:41:00,
2013-08-16 01:46:00,64.9,61.9,30.00,SE,132,0.0,4.0,90,0.00,,,0.00,0,WeatherCatV1.15B25,2013-08-16 06:46:00,
2013-08-16 01:51:00,64.9,61.9,30.00,SE,132,1.0,4.0,90,0.00,,,0.00,0,WeatherCatV1.15B25,2013-08-16 06:51:00,
2013-08-16 01:56:00,64.8,61.8,30.00,SE,132,1.0,4.0,90,0.00,,,0.00,0,WeatherCatV1.15B25,2013-08-16 06:56:00,
2013-08-16 02:00:00,64.7,61.7,30.00,SE,130,0.0,7.0,90,0.00,,,0.00,0,WeatherCatV1.15B25,2013-08-16 07:00:00,
2013-08-16 02:01:00,64.7,61.7,30.00,SE,130,0.0,3.0,90,0.00,,,0.00,0,WeatherCatV1.15B25,2013-08-16 07:01:00,
2013-08-16 02:05:00,64.5,61.5,30.00,SE,130,1.0,3.0,90,0.00,,,0.00,0,WeatherCatV1.15B25,2013-08-16 07:05:00,
2013-08-16 02:06:00,64.5,61.5,30.00,SE,130,3.0,4.0,90,0.00,,,0.00,0,WeatherCatV1.15B25,2013-08-16 07:06:00,
2013-08-16 02:10:00,64.4,61.4,30.00,SE,130,0.0,0.0,90,0.00,,,0.00,0,WeatherCatV1.15B25,2013-08-16 07:10:00,
2013-08-16 02:11:00,64.4,61.4,30.00,SE,130,0.0,0.0,90,0.00,,,0.00,0,WeatherCatV1.15B25,2013-08-16 07:11:00,
2013-08-16 02:15:00,64.4,61.7,30.00,SE,130,0.0,2.0,91,0.00,,,0.00,0,WeatherCatV1.15B25,2013-08-16 07:15:00,
2013-08-16 02:16:00,64.4,61.7,30.00,SE,130,0.0,2.0,91,0.00,,,0.00,0,WeatherCatV1.15B25,2013-08-16 07:16:00,
2013-08-16 02:20:00,64.3,61.6,30.00,SE,130,0.0,2.0,91,0.00,,,0.00,0,WeatherCatV1.15B25,2013-08-16 07:20:00,
2013-08-16 02:21:00,64.3,61.6,30.00,SE,130,0.0,2.0,91,0.00,,,0.00,0,WeatherCatV1.15B25,2013-08-16 07:21:00,
2013-08-16 02:26:00,64.2,61.5,30.00,SE,130,0.0,0.0,91,0.00,,,0.00,0,WeatherCatV1.15B25,2013-08-16 07:26:00,
2013-08-16 02:27:00,64.2,61.5,30.00,SE,130,0.0,0.0,91,0.00,,,0.00,0,WeatherCatV1.15B25,2013-08-16 07:27:00,
2013-08-16 02:31:00,64.2,61.5,30.00,SE,130,0.0,0.0,91,0.00,,,0.00,0,WeatherCatV1.15B25,2013-08-16 07:31:00,
2013-08-16 02:32:00,64.2,61.5,30.00,SE,130,0.0,0.0,91,0.00,,,0.00,0,WeatherCatV1.15B25,2013-08-16 07:32:00,
2013-08-16 02:36:00,64.1,61.4,30.00,SE,130,2.0,3.0,91,0.00,,,0.00,0,WeatherCatV1.15B25,2013-08-16 07:36:00,
2013-08-16 02:37:00,64.1,61.4,30.00,SE,130,0.0,4.0,91,0.00,,,0.00,0,WeatherCatV1.15B25,2013-08-16 07:37:00,
2013-08-16 02:38:00,64.1,61.4,30.00,SE,130,2.0,4.0,91,0.00,,,0.00,0,WeatherCatV1.15B25,2013-08-16 07:38:00,
2013-08-16 02:41:00,64.1,61.4,30.00,SE,130,0.0,0.0,91,0.00,,,0.00,0,WeatherCatV1.15B25,2013-08-16 07:41:00,
2013-08-16 02:42:00,64.1,61.4,30.00,SE,130,0.0,0.0,91,0.00,,,0.00,0,WeatherCatV1.15B25,2013-08-16 07:42:00,
2013-08-16 02:43:00,64.1,61.4,30.00,SE,130,0.0,0.0,91,0.00,,,0.00,0,WeatherCatV1.15B25,2013-08-16 07:43:00,
2013-08-16 02:46:00,64.1,61.4,30.00,SE,130,0.0,0.0,91,0.00,,,0.00,0,WeatherCatV1.15B25,2013-08-16 07:46:00,
2013-08-16 02:47:00,64.1,61.4,30.00,SE,130,0.0,0.0,91,0.00,,,0.00,0,WeatherCatV1.15B25,2013-08-16 07:47:00,
2013-08-16 02:48:00,64.1,61.4,30.00,SE,130,0.0,0.0,91,0.00,,,0.00,0,WeatherCatV1.15B25,2013-08-16 07:48:00,
2013-08-16 02:51:00,64.1,61.4,30.00,SE,130,0.0,0.0,91,0.00,,,0.00,0,WeatherCatV1.15B25,2013-08-16 07:51:00,
2013-08-16 02:52:00,64.2,61.5,30.00,SE,130,0.0,0.0,91,0.00,,,0.00,0,WeatherCatV1.15B25,2013-08-16 07:52:00,
2013-08-16 02:53:00,64.2,61.5,30.00,SE,130,0.0,2.0,91,0.00,,,0.00,0,WeatherCatV1.15B25,2013-08-16 07:53:00,
2013-08-16 02:57:00,64.1,61.4,30.00,SE,130,1.0,1.0,91,0.00,,,0.00,0,WeatherCatV1.15B25,2013-08-16 07:57:00,
2013-08-16 02:58:00,64.1,61.4,30.00,SE,130,0.0,2.0,91,0.00,,,0.00,0,WeatherCatV1.15B25,2013-08-16 07:58:00,
2013-08-16 03:02:00,64.1,61.4,30.00,SE,130,0.0,0.0,91,0.00,,,0.00,0,WeatherCatV1.15B25,2013-08-16 08:02:00,
2013-08-16 03:03:00,64.1,61.4,30.00,SE,130,0.0,0.0,91,0.00,,,0.00,0,WeatherCatV1.15B25,2013-08-16 08:03:00,
2013-08-16 03:07:00,64.1,61.4,30.00,SE,130,1.0,1.0,91,0.00,,,0.00,0,WeatherCatV1.15B25,2013-08-16 08:07:00,
2013-08-16 03:08:00,64.1,61.4,30.00,SE,130,0.0,1.0,91,0.00,,,0.00,0,WeatherCatV1.15B25,2013-08-16 08:08:00,
2013-08-16 03:09:00,64.1,61.4,30.00,SE,130,0.0,1.0,91,0.00,,,0.00,0,WeatherCatV1.15B25,2013-08-16 08:09:00,
2013-08-16 03:12:00,64.1,61.4,30.00,SE,130,0.0,0.0,91,0.00,,,0.00,0,WeatherCatV1.15B25,2013-08-16 08:12:00,
2013-08-16 03:13:00,64.1,61.4,30.00,SE,130,0.0,0.0,91,0.00,,,0.00,0,WeatherCatV1.15B25,2013-08-16 08:13:00,
2013-08-16 03:14:00,64.1,61.4,30.00,SE,130,1.0,1.0,91,0.00,,,0.00,0,WeatherCatV1.15B25,2013-08-16 08:14:00,
2013-08-16 03:17:00,64.0,61.3,30.00,SE,130,2.0,3.0,91,0.00,,,0.00,0,WeatherCatV1.15B25,2013-08-16 08:17:00,
2013-08-16 03:18:00,64.0,61.3,30.00,SE,130,0.0,3.0,91,0.00,,,0.00,0,WeatherCatV1.15B25,2013-08-16 08:18:00,
2013-08-16 03:19:00,64.0,61.3,30.00,SE,130,0.0,3.0,91,0.00,,,0.00,0,WeatherCatV1.15B25,2013-08-16 08:19:00,
2013-08-16 03:22:00,64.0,61.3,30.00,SE,130,0.0,0.0,91,0.00,,,0.00,0,WeatherCatV1.15B25,2013-08-16 08:22:00,
2013-08-16 03:23:00,64.1,61.4,30.00,SE,130,0.0,0.0,91,0.00,,,0.00,0,WeatherCatV1.15B25,2013-08-16 08:23:00,
2013-08-16 03:24:00,64.1,61.4,30.00,SE,130,0.0,0.0,91,0.00,,,0.00,0,WeatherCatV1.15B25,2013-08-16 08:24:00,
2013-08-16 03:28:00,64.1,61.4,30.00,SE,130,0.0,0.0,91,0.00,,,0.00,0,WeatherCatV1.15B25,2013-08-16 08:28:00,
2013-08-16 03:29:00,64.0,61.3,30.00,SE,130,0.0,0.0,91,0.00,,,0.00,0,WeatherCatV1.15B25,2013-08-16 08:29:00,
2013-08-16 03:33:00,64.0,61.3,30.00,SE,130,0.0,0.0,91,0.00,,,0.00,0,WeatherCatV1.15B25,2013-08-16 08:33:00,
2013-08-16 03:34:00,64.0,61.3,30.00,SE,130,0.0,0.0,91,0.00,,,0.00,0,WeatherCatV1.15B25,2013-08-16 08:34:00,
2013-08-16 03:35:00,64.0,61.3,30.00,SE,130,0.0,0.0,91,0.00,,,0.00,0,WeatherCatV1.15B25,2013-08-16 08:35:00,
2013-08-16 03:38:00,64.0,61.3,30.00,SE,130,0.0,2.0,91,0.00,,,0.00,0,WeatherCatV1.15B25,2013-08-16 08:38:00,
2013-08-16 03:39:00,64.0,61.3,30.00,SE,130,0.0,0.0,91,0.00,,,0.00,0,WeatherCatV1.15B25,2013-08-16 08:39:00,
2013-08-16 03:40:00,64.0,61.3,30.01,SE,130,0.0,0.0,91,0.00,,,0.00,0,WeatherCatV1.15B25,2013-08-16 08:40:00,
2013-08-16 03:43:00,64.0,61.3,30.01,SE,130,0.0,2.0,91,0.00,,,0.00,0,WeatherCatV1.15B25,2013-08-16 08:43:00,
2013-08-16 03:44:00,64.0,61.3,30.01,SE,130,0.0,0.0,91,0.00,,,0.00,0,WeatherCatV1.15B25,2013-08-16 08:44:00,
2013-08-16 03:45:00,64.0,61.3,30.01,SE,130,0.0,0.0,91,0.00,,,0.00,0,WeatherCatV1.15B25,2013-08-16 08:45:00,
2013-08-16 03:48:00,64.0,61.3,30.01,SE,130,0.0,0.0,91,0.00,,,0.00,0,WeatherCatV1.15B25,2013-08-16 08:48:00,
2013-08-16 03:49:00,64.0,61.3,30.01,SE,130,3.0,3.0,91,0.00,,,0.00,0,WeatherCatV1.15B25,2013-08-16 08:49:00,
2013-08-16 03:51:00,64.0,61.3,30.01,SE,130,0.0,3.0,91,0.00,,,0.00,0,WeatherCatV1.15B25,2013-08-16 08:51:00,
2013-08-16 03:53:00,64.0,61.3,30.01,SE,130,0.0,0.0,91,0.00,,,0.00,0,WeatherCatV1.15B25,2013-08-16 08:53:00,
2013-08-16 03:54:00,64.0,61.3,30.01,SE,130,0.0,0.0,91,0.00,,,0.00,0,WeatherCatV1.15B25,2013-08-16 08:54:00,
2013-08-16 03:56:00,64.0,61.3,30.00,SE,130,0.0,2.0,91,0.00,,,0.00,0,WeatherCatV1.15B25,2013-08-16 08:56:00,
2013-08-16 03:58:00,63.9,61.2,30.00,SE,130,0.0,0.0,91,0.00,,,0.00,0,WeatherCatV1.15B25,2013-08-16 08:58:00,
2013-08-16 03:59:00,63.9,61.2,30.01,SE,130,0.0,0.0,91,0.00,,,0.00,0,WeatherCatV1.15B25,2013-08-16 08:59:00,
2013-08-16 04:01:00,63.9,61.2,30.00,SE,130,0.0,0.0,91,0.00,,,0.00,0,WeatherCatV1.15B25,2013-08-16 09:01:00,
2013-08-16 04:03:00,63.9,61.2,30.00,SE,130,0.0,3.0,91,0.00,,,0.00,0,WeatherCatV1.15B25,2013-08-16 09:03:00,
2013-08-16 04:04:00,63.9,61.2,30.00,SE,130,0.0,3.0,91,0.00,,,0.00,0,WeatherCatV1.15B25,2013-08-16 09:04:00,
2013-08-16 04:05:00,63.8,61.1,30.00,SE,130,0.0,2.0,91,0.00,,,0.00,0,WeatherCatV1.15B25,2013-08-16 09:05:00,
2013-08-16 04:06:00,63.8,61.1,30.00,SE,130,1.0,1.0,91,0.00,,,0.00,0,WeatherCatV1.15B25,2013-08-16 09:06:00,
2013-08-16 04:08:00,63.8,61.1,30.01,SE,130,0.0,2.0,91,0.00,,,0.00,0,WeatherCatV1.15B25,2013-08-16 09:08:00,
2013-08-16 04:09:00,63.8,61.1,30.00,SE,130,3.0,3.0,91,0.00,,,0.00,0,WeatherCatV1.15B25,2013-08-16 09:09:00,
2013-08-16 04:10:00,63.7,61.0,30.00,SE,130,4.0,4.0,91,0.00,,,0.00,0,WeatherCatV1.15B25,2013-08-16 09:10:00,
2013-08-16 04:11:00,63.6,60.9,30.00,SE,130,0.0,4.0,91,0.00,,,0.00,0,WeatherCatV1.15B25,2013-08-16 09:11:00,
2013-08-16 04:13:00,63.6,60.9,30.00,SE,130,2.0,2.0,91,0.00,,,0.00,0,WeatherCatV1.15B25,2013-08-16 09:13:00,
2013-08-16 04:14:00,63.6,60.9,30.00,SE,130,1.0,2.0,91,0.00,,,0.00,0,WeatherCatV1.15B25,2013-08-16 09:14:00,
2013-08-16 04:15:00,63.6,60.9,30.00,SE,130,0.0,2.0,91,0.00,,,0.00,0,WeatherCatV1.15B25,2013-08-16 09:15:00,
2013-08-16 04:16:00,63.6,60.9,30.00,SE,130,0.0,2.0,91,0.00,,,0.00,0,WeatherCatV1.15B25,2013-08-16 09:16:00,
2013-08-16 04:18:00,63.6,60.9,30.00,SE,130,0.0,0.0,91,0.00,,,0.00,0,WeatherCatV1.15B25,2013-08-16 09:18:00,
2013-08-16 04:19:00,63.5,60.8,30.00,SE,130,0.0,0.0,91,0.00,,,0.00,0,WeatherCatV1.15B25,2013-08-16 09:19:00,
2013-08-16 04:20:00,63.5,60.8,30.00,SE,130,0.0,0.0,91,0.00,,,0.00,0,WeatherCatV1.15B25,2013-08-16 09:20:00,
2013-08-16 04:21:00,63.5,60.8,30.00,SE,130,1.0,2.0,91,0.00,,,0.00,0,WeatherCatV1.15B25,2013-08-16 09:21:00,
2013-08-16 04:24:00,63.5,60.8,30.00,SE,130,0.0,0.0,91,0.00,,,0.00,0,WeatherCatV1.15B25,2013-08-16 09:24:00,
2013-08-16 04:25:00,63.5,60.8,30.00,SE,130,0.0,0.0,91,0.00,,,0.00,0,WeatherCatV1.15B25,2013-08-16 09:25:00,
2013-08-16 04:26:00,63.4,60.7,30.00,SE,130,1.0,3.0,91,0.00,,,0.00,0,WeatherCatV1.15B25,2013-08-16 09:26:00,
2013-08-16 04:29:00,63.4,60.7,30.00,SE,130,2.0,4.0,91,0.00,,,0.00,0,WeatherCatV1.15B25,2013-08-16 09:29:00,
2013-08-16 04:30:00,63.4,60.7,30.00,SE,130,0.0,3.0,91,0.00,,,0.00,0,WeatherCatV1.15B25,2013-08-16 09:30:00,
2013-08-16 04:31:00,63.4,60.7,30.00,SE,130,0.0,2.0,91,0.00,,,0.00,0,WeatherCatV1.15B25,2013-08-16 09:31:00,
2013-08-16 04:32:00,63.4,60.7,30.00,SE,130,2.0,2.0,91,0.00,,,0.00,0,WeatherCatV1.15B25,2013-08-16 09:32:00,
2013-08-16 04:34:00,63.3,60.6,30.00,SE,130,0.0,4.0,91,0.00,,,0.00,0,WeatherCatV1.15B25,2013-08-16 09:34:00,
2013-08-16 04:35:00,63.3,60.6,30.01,SE,130,0.0,2.0,91,0.00,,,0.00,0,WeatherCatV1.15B25,2013-08-16 09:35:00,
2013-08-16 04:36:00,63.3,60.6,30.00,SE,130,0.0,2.0,91,0.00,,,0.00,0,WeatherCatV1.15B25,2013-08-16 09:36:00,
2013-08-16 04:37:00,63.3,60.6,30.01,SE,130,0.0,0.0,91,0.00,,,0.00,0,WeatherCatV1.15B25,2013-08-16 09:37:00,
2013-08-16 04:39:00,63.3,60.6,30.00,SE,130,0.0,0.0,91,0.00,,,0.00,0,WeatherCatV1.15B25,2013-08-16 09:39:00,
2013-08-16 04:41:00,63.3,60.6,30.00,SE,130,0.0,0.0,91,0.00,,,0.00,0,WeatherCatV1.15B25,2013-08-16 09:41:00,
2013-08-16 04:42:00,63.3,60.6,30.00,SE,130,0.0,0.0,91,0.00,,,0.00,0,WeatherCatV1.15B25,2013-08-16 09:42:00,
2013-08-16 04:44:00,63.3,60.6,30.00,SE,130,0.0,0.0,91,0.00,,,0.00,0,WeatherCatV1.15B25,2013-08-16 09:44:00,
2013-08-16 04:45:00,63.3,60.6,30.00,SE,130,0.0,0.0,91,0.00,,,0.00,0,WeatherCatV1.15B25,2013-08-16 09:45:00,
2013-08-16 04:46:00,63.2,60.5,30.00,SE,130,0.0,0.0,91,0.00,,,0.00,0,WeatherCatV1.15B25,2013-08-16 09:46:00,
2013-08-16 04:48:00,63.2,60.5,30.00,SE,130,0.0,0.0,91,0.00,,,0.00,0,WeatherCatV1.15B25,2013-08-16 09:48:00,
2013-08-16 04:49:00,63.2,60.5,30.00,SE,130,0.0,0.0,91,0.00,,,0.00,0,WeatherCatV1.15B25,2013-08-16 09:49:00,
2013-08-16 04:50:00,63.2,60.5,30.00,SE,130,0.0,0.0,91,0.00,,,0.00,0,WeatherCatV1.15B25,2013-08-16 09:50:00,
2013-08-16 04:51:00,63.2,60.5,30.00,SE,130,0.0,0.0,91,0.00,,,0.00,0,WeatherCatV1.15B25,2013-08-16 09:51:00,
2013-08-16 04:52:00,63.2,60.5,30.00,SE,130,0.0,1.0,91,0.00,,,0.00,0,WeatherCatV1.15B25,2013-08-16 09:52:00,
2013-08-16 04:53:00,63.2,60.5,30.00,SE,130,0.0,1.0,91,0.00,,,0.00,0,WeatherCatV1.15B25,2013-08-16 09:53:00,
2013-08-16 04:54:00,63.2,60.5,30.00,SE,130,0.0,0.0,91,0.00,,,0.00,0,WeatherCatV1.15B25,2013-08-16 09:54:00,
2013-08-16 04:55:00,63.2,60.5,30.00,SE,130,0.0,0.0,91,0.00,,,0.00,0,WeatherCatV1.15B25,2013-08-16 09:55:00,
2013-08-16 04:56:00,63.2,60.5,30.00,SE,130,0.0,0.0,91,0.00,,,0.00,0,WeatherCatV1.15B25,2013-08-16 09:56:00,
2013-08-16 04:57:00,63.2,60.5,30.00,SE,130,0.0,0.0,91,0.00,,,0.00,0,WeatherCatV1.15B25,2013-08-16 09:57:00,
2013-08-16 04:58:00,63.2,60.5,30.00,SE,130,0.0,0.0,91,0.00,,,0.00,0,WeatherCatV1.15B25,2013-08-16 09:58:00,
2013-08-16 04:59:00,63.1,60.4,30.00,SE,130,0.0,0.0,91,0.00,,,0.00,0,WeatherCatV1.15B25,2013-08-16 09:59:00,
2013-08-16 05:00:00,63.1,60.4,30.00,SE,130,0.0,0.0,91,0.00,,,0.00,0,WeatherCatV1.15B25,2013-08-16 10:00:00,
2013-08-16 05:01:00,63.1,60.4,30.00,SE,130,1.0,1.0,91,0.00,,,0.00,0,WeatherCatV1.15B25,2013-08-16 10:01:00,
2013-08-16 05:02:00,63.1,60.4,30.00,SE,130,2.0,2.0,91,0.00,,,0.00,0,WeatherCatV1.15B25,2013-08-16 10:02:00,
2013-08-16 05:03:00,63.1,60.4,30.00,SE,130,1.0,3.0,91,0.00,,,0.00,0,WeatherCatV1.15B25,2013-08-16 10:03:00,
2013-08-16 05:04:00,63.0,60.3,30.00,SE,130,0.0,0.0,91,0.00,,,0.00,0,WeatherCatV1.15B25,2013-08-16 10:04:00,
2013-08-16 05:05:00,63.0,60.3,30.00,SE,130,0.0,0.0,91,0.00,,,0.00,0,WeatherCatV1.15B25,2013-08-16 10:05:00,
2013-08-16 05:06:00,63.0,60.3,30.00,SE,130,0.0,3.0,91,0.00,,,0.00,0,WeatherCatV1.15B25,2013-08-16 10:06:00,
2013-08-16 05:07:00,62.9,60.2,30.00,SE,130,0.0,3.0,91,0.00,,,0.00,0,WeatherCatV1.15B25,2013-08-16 10:07:00,
2013-08-16 05:08:00,62.9,60.2,30.00,SE,130,0.0,0.0,91,0.00,,,0.00,0,WeatherCatV1.15B25,2013-08-16 10:08:00,
2013-08-16 05:09:00,62.9,60.2,30.00,SE,130,0.0,0.0,91,0.00,,,0.00,0,WeatherCatV1.15B25,2013-08-16 10:09:00,
2013-08-16 05:11:00,62.9,60.2,30.00,SE,130,0.0,0.0,91,0.00,,,0.00,0,WeatherCatV1.15B25,2013-08-16 10:11:00,
2013-08-16 05:12:00,62.9,60.2,30.00,SE,130,0.0,0.0,91,0.00,,,0.00,0,WeatherCatV1.15B25,2013-08-16 10:12:00,
2013-08-16 05:13:00,62.9,60.2,30.00,SE,130,0.0,0.0,91,0.00,,,0.00,0,WeatherCatV1.15B25,2013-08-16 10:13:00,
2013-08-16 05:14:00,63.0,60.3,30.00,SE,130,0.0,0.0,91,0.00,,,0.00,0,WeatherCatV1.15B25,2013-08-16 10:14:00,
2013-08-16 05:16:00,63.0,60.3,30.01,SE,130,0.0,0.0,91,0.00,,,0.00,0,WeatherCatV1.15B25,2013-08-16 10:16:00,
2013-08-16 05:17:00,63.0,60.3,30.00,SE,130,0.0,3.0,91,0.00,,,0.00,0,WeatherCatV1.15B25,2013-08-16 10:17:00,
2013-08-16 05:18:00,62.9,60.2,30.00,SE,130,3.0,4.0,91,0.00,,,0.00,0,WeatherCatV1.15B25,2013-08-16 10:18:00,
2013-08-16 05:19:00,62.9,60.2,30.00,SE,130,0.0,2.0,91,0.00,,,0.00,0,WeatherCatV1.15B25,2013-08-16 10:19:00,
2013-08-16 05:21:00,62.9,60.2,30.01,SE,130,0.0,0.0,91,0.00,,,0.00,0,WeatherCatV1.15B25,2013-08-16 10:21:00,
2013-08-16 05:22:00,62.9,60.2,30.00,SE,130,2.0,2.0,91,0.00,,,0.00,0,WeatherCatV1.15B25,2013-08-16 10:22:00,
2013-08-16 05:23:00,62.8,60.1,30.00,SE,130,0.0,2.0,91,0.00,,,0.00,0,WeatherCatV1.15B25,2013-08-16 10:23:00,
2013-08-16 05:25:00,62.8,60.1,30.01,SE,130,0.0,0.0,91,0.00,,,0.00,0,WeatherCatV1.15B25,2013-08-16 10:25:00,
2013-08-16 05:26:00,62.8,60.1,30.01,SE,130,0.0,0.0,91,0.00,,,0.00,0,WeatherCatV1.15B25,2013-08-16 10:26:00,
2013-08-16 05:27:00,62.8,60.1,30.01,SE,130,0.0,1.0,91,0.00,,,0.00,0,WeatherCatV1.15B25,2013-08-16 10:27:00,
2013-08-16 05:28:00,62.8,60.1,30.01,SE,130,0.0,1.0,91,0.00,,,0.00,0,WeatherCatV1.15B25,2013-08-16 10:28:00,
2013-08-16 05:29:00,62.8,60.1,30.01,SE,130,3.0,3.0,91,0.00,,,0.00,0,WeatherCatV1.15B25,2013-08-16 10:29:00,
2013-08-16 05:30:00,62.7,60.0,30.01,SE,130,3.0,3.0,91,0.00,,,0.00,0,WeatherCatV1.15B25,2013-08-16 10:30:00,
2013-08-16 05:31:00,62.7,60.0,30.01,SE,130,0.0,3.0,91,0.00,,,0.00,0,WeatherCatV1.15B25,2013-08-16 10:31:00,
2013-08-16 05:32:00,62.6,59.9,30.01,SE,130,0.0,0.0,91,0.00,,,0.00,0,WeatherCatV1.15B25,2013-08-16 10:32:00,
2013-08-16 05:33:00,62.6,59.9,30.01,SE,130,0.0,0.0,91,0.00,,,0.00,0,WeatherCatV1.15B25,2013-08-16 10:33:00,
2013-08-16 05:34:00,62.7,60.0,30.01,SE,130,0.0,0.0,91,0.00,,,0.00,0,WeatherCatV1.15B25,2013-08-16 10:34:00,
2013-08-16 05:35:00,62.7,60.0,30.01,SE,130,0.0,0.0,91,0.00,,,0.00,0,WeatherCatV1.15B25,2013-08-16 10:35:00,
2013-08-16 05:36:00,62.7,60.0,30.01,SE,130,1.0,1.0,91,0.00,,,0.00,0,WeatherCatV1.15B25,2013-08-16 10:36:00,
2013-08-16 05:37:00,62.6,59.9,30.00,SE,130,0.0,1.0,91,0.00,,,0.00,0,WeatherCatV1.15B25,2013-08-16 10:37:00,
2013-08-16 05:38:00,62.6,59.9,30.00,SE,130,0.0,1.0,91,0.00,,,0.00,0,WeatherCatV1.15B25,2013-08-16 10:38:00,
2013-08-16 05:39:00,62.6,59.9,30.00,SE,130,0.0,0.0,91,0.00,,,0.00,0,WeatherCatV1.15B25,2013-08-16 10:39:00,
2013-08-16 05:40:00,62.6,59.9,30.00,SE,130,0.0,0.0,91,0.00,,,0.00,0,WeatherCatV1.15B25,2013-08-16 10:40:00,
2013-08-16 05:42:00,62.6,59.9,30.00,SE,130,0.0,0.0,91,0.00,,,0.00,0,WeatherCatV1.15B25,2013-08-16 10:42:00,
2013-08-16 05:43:00,62.6,59.9,30.01,SE,130,0.0,0.0,91,0.00,,,0.00,0,WeatherCatV1.15B25,2013-08-16 10:43:00,
2013-08-16 05:45:00,62.6,59.9,30.01,SE,130,0.0,0.0,91,0.00,,,0.00,0,WeatherCatV1.15B25,2013-08-16 10:45:00,
2013-08-16 05:46:00,62.6,59.9,30.01,SE,130,0.0,0.0,91,0.00,,,0.00,0,WeatherCatV1.15B25,2013-08-16 10:46:00,
2013-08-16 05:47:00,62.6,59.9,30.01,SE,130,0.0,0.0,91,0.00,,,0.00,0,WeatherCatV1.15B25,2013-08-16 10:47:00,
2013-08-16 05:48:00,62.6,59.9,30.01,SE,130,0.0,0.0,91,0.00,,,0.00,0,WeatherCatV1.15B25,2013-08-16 10:48:00,
2013-08-16 05:50:00,62.6,59.9,30.01,SE,130,1.0,2.0,91,0.00,,,0.00,0,WeatherCatV1.15B25,2013-08-16 10:50:00,
2013-08-16 05:51:00,62.6,59.9,30.00,SE,130,0.0,2.0,91,0.00,,,0.00,0,WeatherCatV1.15B25,2013-08-16 10:51:00,
2013-08-16 05:52:00,62.6,59.9,30.01,SE,130,0.0,2.0,91,0.00,,,0.00,0,WeatherCatV1.15B25,2013-08-16 10:52:00,
2013-08-16 05:53:00,62.7,60.0,30.00,SE,130,0.0,0.0,91,0.00,,,0.00,0,WeatherCatV1.15B25,2013-08-16 10:53:00,
2013-08-16 05:55:00,62.7,60.0,30.00,SE,130,0.0,0.0,91,0.00,,,0.00,0,WeatherCatV1.15B25,2013-08-16 10:55:00,
2013-08-16 05:56:00,62.7,60.0,30.00,SE,130,0.0,0.0,91,0.00,,,0.00,0,WeatherCatV1.15B25,2013-08-16 10:56:00,
2013-08-16 05:57:00,62.7,60.0,30.00,SE,130,0.0,0.0,91,0.00,,,0.00,0,WeatherCatV1.15B25,2013-08-16 10:57:00,
2013-08-16 05:58:00,62.7,60.0,30.01,SE,130,0.0,1.0,91,0.00,,,0.00,0,WeatherCatV1.15B25,2013-08-16 10:58:00,
2013-08-16 06:01:00,62.7,60.0,30.01,SE,130,2.0,4.0,91,0.00,,,0.00,0,WeatherCatV1.15B25,2013-08-16 11:01:00,
2013-08-16 06:02:00,62.7,60.0,30.00,SE,130,0.0,2.0,91,0.00,,,0.00,0,WeatherCatV1.15B25,2013-08-16 11:02:00,
2013-08-16 06:03:00,62.7,60.0,30.00,SE,130,0.0,1.0,91,0.00,,,0.00,0,WeatherCatV1.15B25,2013-08-16 11:03:00,
2013-08-16 06:06:00,62.7,60.0,30.00,SE,130,0.0,2.0,91,0.00,,,0.00,0,WeatherCatV1.15B25,2013-08-16 11:06:00,
2013-08-16 06:07:00,62.7,60.0,30.00,SE,130,1.0,1.0,91,0.00,,,0.00,0,WeatherCatV1.15B25,2013-08-16 11:07:00,
2013-08-16 06:08:00,62.7,60.0,30.00,SE,130,0.0,1.0,91,0.00,,,0.00,0,WeatherCatV1.15B25,2013-08-16 11:08:00,
2013-08-16 06:09:00,62.7,60.0,30.01,SE,130,1.0,1.0,91,0.00,,,0.00,0,WeatherCatV1.15B25,2013-08-16 11:09:00,
2013-08-16 06:11:00,62.7,60.0,30.01,SE,130,0.0,6.0,91,0.00,,,0.00,0,WeatherCatV1.15B25,2013-08-16 11:11:00,
2013-08-16 06:12:00,62.7,60.0,30.01,SE,130,0.0,1.0,91,0.00,,,0.00,0,WeatherCatV1.15B25,2013-08-16 11:12:00,
2013-08-16 06:13:00,62.6,59.9,30.01,SE,130,1.0,2.0,91,0.00,,,0.00,0,WeatherCatV1.15B25,2013-08-16 11:13:00,
2013-08-16 06:14:00,62.6,59.9,30.01,SE,130,2.0,5.0,91,0.00,,,0.00,0,WeatherCatV1.15B25,2013-08-16 11:14:00,
2013-08-16 06:16:00,62.6,59.9,30.01,SE,130,2.0,3.0,91,0.00,,,0.00,0,WeatherCatV1.15B25,2013-08-16 11:16:00,
2013-08-16 06:17:00,62.6,59.9,30.01,SE,130,0.0,3.0,91,0.00,,,0.00,0,WeatherCatV1.15B25,2013-08-16 11:17:00,
2013-08-16 06:18:00,62.6,59.9,30.01,SE,130,2.0,4.0,91,0.00,,,0.00,0,WeatherCatV1.15B25,2013-08-16 11:18:00,
2013-08-16 06:19:00,62.6,59.9,30.01,SE,130,3.0,4.0,91,0.00,,,0.00,0,WeatherCatV1.15B25,2013-08-16 11:19:00,
2013-08-16 06:21:00,62.6,59.9,30.01,SE,130,1.0,3.0,91,0.00,,,0.00,0,WeatherCatV1.15B25,2013-08-16 11:21:00,
2013-08-16 06:22:00,62.6,59.9,30.01,SE,130,0.0,3.0,91,0.00,,,0.00,0,WeatherCatV1.15B25,2013-08-16 11:22:00,
2013-08-16 06:23:00,62.6,59.9,30.01,SE,130,0.0,3.0,91,0.00,,,0.00,0,WeatherCatV1.15B25,2013-08-16 11:23:00,
2013-08-16 06:24:00,62.5,59.8,30.01,SE,130,0.0,3.0,91,0.00,,,0.00,0,WeatherCatV1.15B25,2013-08-16 11:24:00,
2013-08-16 06:26:00,62.6,59.9,30.01,SE,130,4.0,4.0,91,0.00,,,0.00,0,WeatherCatV1.15B25,2013-08-16 11:26:00,
2013-08-16 06:27:00,62.5,59.8,30.01,SE,130,0.0,4.0,91,0.00,,,0.00,0,WeatherCatV1.15B25,2013-08-16 11:27:00,
2013-08-16 06:28:00,62.6,59.9,30.01,SE,130,0.0,4.0,91,0.00,,,0.00,0,WeatherCatV1.15B25,2013-08-16 11:28:00,
2013-08-16 06:29:00,62.6,59.9,30.01,SE,130,0.0,0.0,91,0.00,,,0.00,0,WeatherCatV1.15B25,2013-08-16 11:29:00,
2013-08-16 06:31:00,62.5,59.8,30.02,SE,130,0.0,2.0,91,0.00,,,0.00,0,WeatherCatV1.15B25,2013-08-16 11:31:00,
2013-08-16 06:32:00,62.5,59.8,30.02,SE,130,2.0,3.0,91,0.00,,,0.00,0,WeatherCatV1.15B25,2013-08-16 11:32:00,
2013-08-16 06:33:00,62.5,59.8,30.02,SE,130,0.0,3.0,91,0.00,,,0.00,0,WeatherCatV1.15B25,2013-08-16 11:33:00,
2013-08-16 06:34:00,62.5,59.8,30.02,SE,130,0.0,0.0,91,0.00,,,0.00,0,WeatherCatV1.15B25,2013-08-16 11:34:00,
2013-08-16 06:36:00,62.5,59.8,30.02,SE,130,0.0,2.0,91,0.00,,,0.00,0,WeatherCatV1.15B25,2013-08-16 11:36:00,
2013-08-16 06:37:00,62.5,59.8,30.02,SE,130,0.0,2.0,91,0.00,,,0.00,0,WeatherCatV1.15B25,2013-08-16 11:37:00,
2013-08-16 06:38:00,62.5,59.8,30.02,SE,130,0.0,2.0,91,0.00,,,0.00,0,WeatherCatV1.15B25,2013-08-16 11:38:00,
2013-08-16 06:39:00,62.5,59.8,30.02,SE,130,0.0,0.0,91,0.00,,,0.00,0,WeatherCatV1.15B25,2013-08-16 11:39:00,
2013-08-16 06:41:00,62.5,59.8,30.02,SE,130,0.0,0.0,91,0.00,,,0.00,0,WeatherCatV1.15B25,2013-08-16 11:41:00,
2013-08-16 06:43:00,62.5,59.8,30.02,SE,130,0.0,1.0,91,0.00,,,0.00,0,WeatherCatV1.15B25,2013-08-16 11:43:00,
2013-08-16 06:45:00,62.5,59.8,30.02,SE,130,0.0,0.0,91,0.00,,,0.00,0,WeatherCatV1.15B25,2013-08-16 11:45:00,
2013-08-16 06:46:00,62.5,59.8,30.02,SE,130,0.0,0.0,91,0.00,,,0.00,0,WeatherCatV1.15B25,2013-08-16 11:46:00,
2013-08-16 06:48:00,62.6,59.9,30.02,SE,130,0.0,0.0,91,0.00,,,0.00,0,WeatherCatV1.15B25,2013-08-16 11:48:00,
2013-08-16 06:49:00,62.6,59.9,30.02,SE,130,0.0,0.0,91,0.00,,,0.00,0,WeatherCatV1.15B25,2013-08-16 11:49:00,
2013-08-16 06:50:00,62.6,59.9,30.02,SE,130,0.0,0.0,91,0.00,,,0.00,0,WeatherCatV1.15B25,2013-08-16 11:50:00,
2013-08-16 06:52:00,62.6,59.9,30.02,SE,130,0.0,1.0,91,0.00,,,0.00,0,WeatherCatV1.15B25,2013-08-16 11:52:00,
2013-08-16 06:53:00,62.6,59.9,30.03,SE,130,0.0,0.0,91,0.00,,,0.00,0,WeatherCatV1.15B25,2013-08-16 11:53:00,
2013-08-16 06:55:00,62.6,59.9,30.03,SE,130,3.0,3.0,91,0.00,,,0.00,0,WeatherCatV1.15B25,2013-08-16 11:55:00,
2013-08-16 06:56:00,62.6,59.9,30.03,SE,130,0.0,3.0,91,0.00,,,0.00,0,WeatherCatV1.15B25,2013-08-16 11:56:00,
2013-08-16 06:57:00,62.6,59.9,30.03,SE,130,0.0,1.0,91,0.00,,,0.00,0,WeatherCatV1.15B25,2013-08-16 11:57:00,
2013-08-16 06:58:00,62.6,59.9,30.03,SE,130,0.0,0.0,91,0.00,,,0.00,0,WeatherCatV1.15B25,2013-08-16 11:58:00,
2013-08-16 07:00:00,62.6,59.9,30.03,SE,130,0.0,0.0,91,0.00,,,0.00,0,WeatherCatV1.15B25,2013-08-16 12:00:00,
2013-08-16 07:01:00,62.6,59.9,30.03,SE,130,0.0,0.0,91,0.00,,,0.00,0,WeatherCatV1.15B25,2013-08-16 12:01:00,
2013-08-16 07:02:00,62.7,60.0,30.03,SE,130,0.0,1.0,91,0.00,,,0.00,0,WeatherCatV1.15B25,2013-08-16 12:02:00,
2013-08-16 07:03:00,62.6,59.9,30.03,SE,130,0.0,1.0,91,0.00,,,0.00,0,WeatherCatV1.15B25,2013-08-16 12:03:00,
2013-08-16 07:05:00,62.6,59.9,30.03,SE,130,0.0,0.0,91,0.00,,,0.00,0,WeatherCatV1.15B25,2013-08-16 12:05:00,
2013-08-16 07:06:00,62.6,59.9,30.03,SE,130,0.0,0.0,91,0.00,,,0.00,5,WeatherCatV1.15B25,2013-08-16 12:06:00,
2013-08-16 07:07:00,62.6,59.9,30.03,SE,130,0.0,0.0,91,0.00,,,0.00,5,WeatherCatV1.15B25,2013-08-16 12:07:00,
2013-08-16 07:08:00,62.6,59.9,30.03,SE,130,0.0,0.0,91,0.00,,,0.00,5,WeatherCatV1.15B25,2013-08-16 12:08:00,
2013-08-16 07:09:00,62.6,59.9,30.03,SE,130,0.0,0.0,91,0.00,,,0.00,5,WeatherCatV1.15B25,2013-08-16 12:09:00,
2013-08-16 07:10:00,62.6,59.9,30.03,SE,130,0.0,1.0,91,0.00,,,0.00,7,WeatherCatV1.15B25,2013-08-16 12:10:00,
2013-08-16 07:11:00,62.6,59.9,30.03,SE,130,0.0,0.0,91,0.00,,,0.00,7,WeatherCatV1.15B25,2013-08-16 12:11:00,
2013-08-16 07:12:00,62.6,59.9,30.03,SE,130,0.0,0.0,91,0.00,,,0.00,7,WeatherCatV1.15B25,2013-08-16 12:12:00,
2013-08-16 07:13:00,62.5,59.8,30.03,SE,130,0.0,0.0,91,0.00,,,0.00,7,WeatherCatV1.15B25,2013-08-16 12:13:00,
2013-08-16 07:14:00,62.5,59.8,30.03,SE,130,0.0,0.0,91,0.00,,,0.00,7,WeatherCatV1.15B25,2013-08-16 12:14:00,
2013-08-16 07:15:00,62.5,59.8,30.03,SE,130,0.0,0.0,91,0.00,,,0.00,9,WeatherCatV1.15B25,2013-08-16 12:15:00,
2013-08-16 07:17:00,62.5,59.8,30.03,SE,130,0.0,0.0,91,0.00,,,0.00,9,WeatherCatV1.15B25,2013-08-16 12:17:00,
2013-08-16 07:18:00,62.5,59.8,30.03,SE,130,0.0,0.0,91,0.00,,,0.00,11,WeatherCatV1.15B25,2013-08-16 12:18:00,
2013-08-16 07:19:00,62.4,59.7,30.03,SE,130,0.0,0.0,91,0.00,,,0.00,11,WeatherCatV1.15B25,2013-08-16 12:19:00,
2013-08-16 07:20:00,62.4,59.7,30.03,SE,130,0.0,0.0,91,0.00,,,0.00,11,WeatherCatV1.15B25,2013-08-16 12:20:00,
2013-08-16 07:22:00,62.4,59.7,30.03,SE,130,1.0,2.0,91,0.00,,,0.00,11,WeatherCatV1.15B25,2013-08-16 12:22:00,
2013-08-16 07:23:00,62.3,59.6,30.03,SE,130,0.0,3.0,91,0.00,,,0.00,11,WeatherCatV1.15B25,2013-08-16 12:23:00,
2013-08-16 07:24:00,62.3,59.6,30.03,SE,130,0.0,0.0,91,0.00,,,0.00,12,WeatherCatV1.15B25,2013-08-16 12:24:00,
2013-08-16 07:25:00,62.3,59.6,30.03,SE,130,0.0,3.0,91,0.00,,,0.00,12,WeatherCatV1.15B25,2013-08-16 12:25:00,
2013-08-16 07:27:00,62.3,59.6,30.03,SE,130,1.0,5.0,91,0.00,,,0.00,14,WeatherCatV1.15B25,2013-08-16 12:27:00,
2013-08-16 07:28:00,62.2,59.5,30.03,SE,130,0.0,0.0,91,0.00,,,0.00,14,WeatherCatV1.15B25,2013-08-16 12:28:00,
2013-08-16 07:29:00,62.3,59.6,30.03,SE,130,0.0,0.0,91,0.00,,,0.00,14,WeatherCatV1.15B25,2013-08-16 12:29:00,
2013-08-16 07:30:00,62.3,59.6,30.03,SE,130,4.0,6.0,91,0.00,,,0.00,16,WeatherCatV1.15B25,2013-08-16 12:30:00,
2013-08-16 07:32:00,62.2,59.5,30.03,SE,130,0.0,6.0,91,0.00,,,0.00,18,WeatherCatV1.15B25,2013-08-16 12:32:00,
2013-08-16 07:33:00,62.2,59.5,30.03,SE,130,0.0,0.0,91,0.00,,,0.00,21,WeatherCatV1.15B25,2013-08-16 12:33:00,
2013-08-16 07:34:00,62.2,59.5,30.03,SE,130,0.0,0.0,91,0.00,,,0.00,21,WeatherCatV1.15B25,2013-08-16 12:34:00,
2013-08-16 07:35:00,62.3,59.6,30.03,SE,130,2.0,5.0,91,0.00,,,0.00,21,WeatherCatV1.15B25,2013-08-16 12:35:00,
2013-08-16 07:37:00,62.3,59.6,30.04,SE,130,0.0,2.0,91,0.00,,,0.00,21,WeatherCatV1.15B25,2013-08-16 12:37:00,
2013-08-16 07:38:00,62.3,59.6,30.04,SE,130,0.0,0.0,91,0.00,,,0.00,21,WeatherCatV1.15B25,2013-08-16 12:38:00,
2013-08-16 07:39:00,62.3,59.6,30.04,SE,130,0.0,0.0,91,0.00,,,0.00,21,WeatherCatV1.15B25,2013-08-16 12:39:00,
2013-08-16 07:40:00,62.3,59.6,30.04,SE,130,0.0,4.0,91,0.00,,,0.00,21,WeatherCatV1.15B25,2013-08-16 12:40:00,
2013-08-16 07:42:00,62.4,59.7,30.04,SE,130,3.0,3.0,91,0.00,,,0.00,23,WeatherCatV1.15B25,2013-08-16 12:42:00,
2013-08-16 07:44:00,62.3,59.6,30.04,SE,130,0.0,5.0,91,0.00,,,0.00,26,WeatherCatV1.15B25,2013-08-16 12:44:00,
2013-08-16 07:46:00,62.3,59.6,30.04,SE,130,0.0,0.0,91,0.00,,,0.00,28,WeatherCatV1.15B25,2013-08-16 12:46:00,
2013-08-16 07:47:00,62.3,59.6,30.04,SE,130,0.0,1.0,91,0.00,,,0.00,30,WeatherCatV1.15B25,2013-08-16 12:47:00,
2013-08-16 07:49:00,62.3,59.6,30.04,SE,130,0.0,0.0,91,0.00,,,0.00,32,WeatherCatV1.15B25,2013-08-16 12:49:00,
2013-08-16 07:51:00,62.3,59.6,30.04,SE,130,0.0,0.0,91,0.00,,,0.00,30,WeatherCatV1.15B25,2013-08-16 12:51:00,
2013-08-16 07:52:00,62.3,59.6,30.04,SE,130,3.0,5.0,91,0.00,,,0.00,32,WeatherCatV1.15B25,2013-08-16 12:52:00,
2013-08-16 07:54:00,62.3,59.6,30.04,SE,130,1.0,4.0,91,0.00,,,0.00,37,WeatherCatV1.15B25,2013-08-16 12:54:00,
2013-08-16 07:55:00,62.3,59.6,30.04,SE,130,2.0,3.0,91,0.00,,,0.00,37,WeatherCatV1.15B25,2013-08-16 12:55:00,
2013-08-16 07:56:00,62.2,59.5,30.04,SE,130,0.0,2.0,91,0.00,,,0.00,40,WeatherCatV1.15B25,2013-08-16 12:56:00,
2013-08-16 07:58:00,62.2,59.5,30.04,SE,130,0.0,0.0,91,0.00,,,0.00,42,WeatherCatV1.15B25,2013-08-16 12:58:00,
2013-08-16 07:59:00,62.2,59.5,30.04,SE,130,0.0,0.0,91,0.00,,,0.00,42,WeatherCatV1.15B25,2013-08-16 12:59:00,
2013-08-16 08:00:00,62.2,59.5,30.04,SE,130,0.0,0.0,91,0.00,,,0.00,40,WeatherCatV1.15B25,2013-08-16 13:00:00,
2013-08-16 08:01:00,62.2,59.5,30.04,SE,130,0.0,0.0,91,0.00,,,0.00,40,WeatherCatV1.15B25,2013-08-16 13:01:00,
2013-08-16 08:03:00,62.3,59.6,30.05,SE,130,0.0,0.0,91,0.00,,,0.00,46,WeatherCatV1.15B25,2013-08-16 13:03:00,
2013-08-16 08:04:00,62.3,59.6,30.05,SE,130,0.0,0.0,91,0.00,,,0.00,49,WeatherCatV1.15B25,2013-08-16 13:04:00,
2013-08-16 08:05:00,62.3,59.6,30.05,SE,130,0.0,0.0,91,0.00,,,0.00,49,WeatherCatV1.15B25,2013-08-16 13:05:00,
2013-08-16 08:06:00,62.3,59.6,30.05,SE,130,0.0,1.0,91,0.00,,,0.00,47,WeatherCatV1.15B25,2013-08-16 13:06:00,
2013-08-16 08:08:00,62.3,59.6,30.04,SE,130,2.0,5.0,91,0.00,,,0.00,49,WeatherCatV1.15B25,2013-08-16 13:08:00,
2013-08-16 08:09:00,62.3,59.6,30.05,SE,130,0.0,0.0,91,0.00,,,0.00,51,WeatherCatV1.15B25,2013-08-16 13:09:00,
2013-08-16 08:10:00,62.3,59.6,30.04,SE,130,0.0,0.0,91,0.00,,,0.00,51,WeatherCatV1.15B25,2013-08-16 13:10:00,
2013-08-16 08:11:00,62.3,59.6,30.04,SE,130,0.0,0.0,91,0.00,,,0.00,53,WeatherCatV1.15B25,2013-08-16 13:11:00,
2013-08-16 08:13:00,62.3,59.6,30.05,SE,130,1.0,1.0,91,0.00,,,0.00,54,WeatherCatV1.15B25,2013-08-16 13:13:00,
2013-08-16 08:14:00,62.3,59.6,30.05,SE,130,0.0,1.0,91,0.00,,,0.00,60,WeatherCatV1.15B25,2013-08-16 13:14:00,
2013-08-16 08:15:00,62.3,59.6,30.05,SE,130,0.0,1.0,91,0.00,,,0.00,60,WeatherCatV1.15B25,2013-08-16 13:15:00,
2013-08-16 08:16:00,62.3,59.6,30.05,SE,130,0.0,0.0,91,0.00,,,0.00,63,WeatherCatV1.15B25,2013-08-16 13:16:00,
2013-08-16 08:18:00,62.3,59.6,30.05,SE,130,0.0,0.0,91,0.00,,,0.00,72,WeatherCatV1.15B25,2013-08-16 13:18:00,
2013-08-16 08:20:00,62.3,59.6,30.05,SE,130,0.0,1.0,91,0.00,,,0.00,69,WeatherCatV1.15B25,2013-08-16 13:20:00,
2013-08-16 08:21:00,62.3,59.6,30.05,SE,130,0.0,1.0,91,0.00,,,0.00,62,WeatherCatV1.15B25,2013-08-16 13:21:00,
2013-08-16 08:23:00,62.3,59.6,30.05,SE,130,0.0,0.0,91,0.00,,,0.00,53,WeatherCatV1.15B25,2013-08-16 13:23:00,
2013-08-16 08:25:00,62.4,59.7,30.05,SE,130,0.0,1.0,91,0.00,,,0.00,51,WeatherCatV1.15B25,2013-08-16 13:25:00,
2013-08-16 08:27:00,62.5,59.8,30.05,SE,130,1.0,1.0,91,0.00,,,0.00,56,WeatherCatV1.15B25,2013-08-16 13:27:00,
2013-08-16 08:28:00,62.5,59.8,30.05,SE,130,0.0,2.0,91,0.00,,,0.00,62,WeatherCatV1.15B25,2013-08-16 13:28:00,
2013-08-16 08:30:00,62.5,59.8,30.05,SE,130,0.0,0.0,91,0.00,,,0.00,72,WeatherCatV1.15B25,2013-08-16 13:30:00,
2013-08-16 08:32:00,62.4,59.7,30.05,SE,130,0.0,3.0,91,0.00,,,0.00,77,WeatherCatV1.15B25,2013-08-16 13:32:00,
2013-08-16 08:33:00,62.3,59.6,30.05,SE,130,0.0,4.0,91,0.00,,,0.00,81,WeatherCatV1.15B25,2013-08-16 13:33:00,
2013-08-16 08:35:00,62.4,59.7,30.05,SE,130,0.0,2.0,91,0.00,,,0.00,88,WeatherCatV1.15B25,2013-08-16 13:35:00,
2013-08-16 08:36:00,62.4,59.7,30.05,SE,130,0.0,2.0,91,0.00,,,0.00,88,WeatherCatV1.15B25,2013-08-16 13:36:00,
2013-08-16 08:37:00,62.3,59.6,30.05,SE,130,0.0,0.0,91,0.00,,,0.00,88,WeatherCatV1.15B25,2013-08-16 13:37:00,
2013-08-16 08:39:00,62.3,59.6,30.05,SE,130,0.0,2.0,91,0.00,,,0.00,84,WeatherCatV1.15B25,2013-08-16 13:39:00,
2013-08-16 08:40:00,62.4,59.7,30.05,SE,130,0.0,0.0,91,0.00,,,0.00,81,WeatherCatV1.15B25,2013-08-16 13:40:00,
2013-08-16 08:41:00,62.4,59.7,30.05,SE,130,0.0,0.0,91,0.00,,,0.00,79,WeatherCatV1.15B25,2013-08-16 13:41:00,
2013-08-16 08:42:00,62.4,59.7,30.05,SE,130,0.0,0.0,91,0.00,,,0.00,83,WeatherCatV1.15B25,2013-08-16 13:42:00,
2013-08-16 08:44:00,62.4,59.7,30.05,SE,130,0.0,0.0,91,0.00,,,0.00,88,WeatherCatV1.15B25,2013-08-16 13:44:00,
2013-08-16 08:45:00,62.5,59.8,30.05,SE,130,0.0,0.0,91,0.00,,,0.00,86,WeatherCatV1.15B25,2013-08-16 13:45:00,
2013-08-16 08:46:00,62.5,59.8,30.05,SE,130,0.0,0.0,91,0.00,,,0.00,86,WeatherCatV1.15B25,2013-08-16 13:46:00,
2013-08-16 08:47:00,62.5,59.8,30.05,SE,130,0.0,0.0,91,0.00,,,0.00,86,WeatherCatV1.15B25,2013-08-16 13:47:00,
2013-08-16 08:49:00,62.5,59.8,30.05,SE,130,0.0,2.0,91,0.00,,,0.00,91,WeatherCatV1.15B25,2013-08-16 13:49:00,
2013-08-16 08:50:00,62.5,59.5,30.05,SE,130,0.0,1.0,90,0.00,,,0.00,100,WeatherCatV1.15B25,2013-08-16 13:50:00,
2013-08-16 08:51:00,62.5,59.5,30.05,SE,130,0.0,1.0,90,0.00,,,0.00,114,WeatherCatV1.15B25,2013-08-16 13:51:00,
2013-08-16 08:52:00,62.5,59.5,30.05,SE,130,0.0,3.0,90,0.00,,,0.00,120,WeatherCatV1.15B25,2013-08-16 13:52:00,
2013-08-16 08:54:00,62.5,59.5,30.05,SE,130,0.0,3.0,90,0.00,,,0.00,116,WeatherCatV1.15B25,2013-08-16 13:54:00,
2013-08-16 08:55:00,62.5,59.5,30.05,SE,130,4.0,5.0,90,0.00,,,0.00,123,WeatherCatV1.15B25,2013-08-16 13:55:00,
2013-08-16 08:56:00,62.5,59.5,30.05,SE,130,1.0,5.0,90,0.00,,,0.00,135,WeatherCatV1.15B25,2013-08-16 13:56:00,
2013-08-16 08:58:00,62.5,59.5,30.05,SE,130,0.0,2.0,90,0.00,,,0.00,151,WeatherCatV1.15B25,2013-08-16 13:58:00,
2013-08-16 08:59:00,62.5,59.5,30.05,SE,130,0.0,0.0,90,0.00,,,0.00,156,WeatherCatV1.15B25,2013-08-16 13:59:00,
2013-08-16 09:01:00,62.5,59.5,30.05,SE,130,0.0,0.0,90,0.00,,,0.00,155,WeatherCatV1.15B25,2013-08-16 14:01:00,
2013-08-16 09:03:00,62.5,59.5,30.05,SE,130,1.0,5.0,90,0.00,,,0.00,149,WeatherCatV1.15B25,2013-08-16 14:03:00,
2013-08-16 09:04:00,62.6,59.6,30.05,SE,130,0.0,1.0,90,0.00,,,0.00,148,WeatherCatV1.15B25,2013-08-16 14:04:00,
2013-08-16 09:06:00,62.6,60.2,30.05,SE,130,2.0,3.0,92,0.00,,,0.00,146,WeatherCatV1.15B25,2013-08-16 14:06:00,
2013-08-16 09:07:00,62.6,59.6,30.05,SE,130,5.0,6.0,90,0.00,,,0.00,149,WeatherCatV1.15B25,2013-08-16 14:07:00,
2013-08-16 09:09:00,62.5,59.5,30.05,SE,130,3.0,6.0,90,0.00,,,0.00,156,WeatherCatV1.15B25,2013-08-16 14:09:00,
2013-08-16 09:11:00,62.4,59.4,30.05,SE,130,0.0,7.0,90,0.00,,,0.00,181,WeatherCatV1.15B25,2013-08-16 14:11:00,
2013-08-16 09:12:00,62.3,59.3,30.05,SE,130,0.0,3.0,90,0.00,,,0.00,186,WeatherCatV1.15B25,2013-08-16 14:12:00,
2013-08-16 09:14:00,62.4,59.4,30.05,SE,130,0.0,4.0,90,0.00,,,0.00,171,WeatherCatV1.15B25,2013-08-16 14:14:00,
2013-08-16 09:15:00,62.5,59.5,30.05,SE,130,1.0,4.0,90,0.00,,,0.00,181,WeatherCatV1.15B25,2013-08-16 14:15:00,
2013-08-16 09:17:00,62.6,59.6,30.05,SE,130,0.0,0.0,90,0.00,,,0.00,163,WeatherCatV1.15B25,2013-08-16 14:17:00,
2013-08-16 09:19:00,62.6,59.6,30.05,SE,130,0.0,0.0,90,0.00,,,0.00,167,WeatherCatV1.15B25,2013-08-16 14:19:00,
2013-08-16 09:20:00,62.7,59.7,30.05,SE,130,0.0,0.0,90,0.00,,,0.00,167,WeatherCatV1.15B25,2013-08-16 14:20:00,
2013-08-16 09:22:00,62.7,59.7,30.05,SE,130,0.0,3.0,90,0.00,,,0.00,162,WeatherCatV1.15B25,2013-08-16 14:22:00,
2013-08-16 09:24:00,62.8,59.8,30.05,SE,130,0.0,4.0,90,0.00,,,0.00,158,WeatherCatV1.15B25,2013-08-16 14:24:00,
2013-08-16 09:25:00,62.8,59.8,30.05,SE,130,0.0,4.0,90,0.00,,,0.00,169,WeatherCatV1.15B25,2013-08-16 14:25:00,
2013-08-16 09:27:00,62.9,59.9,30.05,SE,130,0.0,1.0,90,0.00,,,0.00,167,WeatherCatV1.15B25,2013-08-16 14:27:00,
2013-08-16 09:29:00,63.0,60.0,30.05,SE,130,0.0,2.0,90,0.00,,,0.00,172,WeatherCatV1.15B25,2013-08-16 14:29:00,
2013-08-16 09:30:00,63.0,60.0,30.05,SE,130,0.0,2.0,90,0.00,,,0.00,146,WeatherCatV1.15B25,2013-08-16 14:30:00,
2013-08-16 09:32:00,63.1,59.8,30.05,SE,130,0.0,0.0,89,0.00,,,0.00,130,WeatherCatV1.15B25,2013-08-16 14:32:00,
2013-08-16 09:33:00,63.0,59.7,30.05,SE,130,2.0,4.0,89,0.00,,,0.00,120,WeatherCatV1.15B25,2013-08-16 14:33:00,
2013-08-16 09:35:00,62.9,59.6,30.05,SE,130,4.0,5.0,89,0.00,,,0.00,121,WeatherCatV1.15B25,2013-08-16 14:35:00,
2013-08-16 09:36:00,62.9,59.6,30.05,SE,130,4.0,5.0,89,0.00,,,0.00,135,WeatherCatV1.15B25,2013-08-16 14:36:00,
2013-08-16 09:37:00,62.8,59.5,30.05,SE,130,0.0,5.0,89,0.00,,,0.00,185,WeatherCatV1.15B25,2013-08-16 14:37:00,
2013-08-16 09:38:00,62.8,59.5,30.05,SE,130,0.0,5.0,89,0.00,,,0.00,185,WeatherCatV1.15B25,2013-08-16 14:38:00,
2013-08-16 09:40:00,62.9,59.6,30.05,SE,130,1.0,5.0,89,0.00,,,0.00,285,WeatherCatV1.15B25,2013-08-16 14:40:00,
2013-08-16 09:41:00,63.0,59.7,30.05,SE,130,0.0,1.0,89,0.00,,,0.00,269,WeatherCatV1.15B25,2013-08-16 14:41:00,
2013-08-16 09:42:00,63.0,59.7,30.05,SE,130,2.0,3.0,89,0.00,,,0.00,260,WeatherCatV1.15B25,2013-08-16 14:42:00,
2013-08-16 09:43:00,63.1,59.8,30.05,SE,130,1.0,3.0,89,0.00,,,0.00,250,WeatherCatV1.15B25,2013-08-16 14:43:00,
2013-08-16 09:45:00,63.0,59.7,30.05,SE,130,3.0,7.0,89,0.00,,,0.00,207,WeatherCatV1.15B25,2013-08-16 14:45:00,
2013-08-16 09:46:00,63.0,59.7,30.05,SE,130,0.0,3.0,89,0.00,,,0.00,197,WeatherCatV1.15B25,2013-08-16 14:46:00,
2013-08-16 09:47:00,63.1,59.8,30.05,SE,130,4.0,6.0,89,0.00,,,0.00,199,WeatherCatV1.15B25,2013-08-16 14:47:00,
2013-08-16 09:48:00,63.1,59.8,30.05,SE,130,2.0,6.0,89,0.00,,,0.00,199,WeatherCatV1.15B25,2013-08-16 14:48:00,
2013-08-16 09:50:00,63.2,59.9,30.05,SE,130,2.0,3.0,89,0.00,,,0.00,250,WeatherCatV1.15B25,2013-08-16 14:50:00,
2013-08-16 09:51:00,63.2,59.9,30.05,SE,130,1.0,3.0,89,0.00,,,0.00,221,WeatherCatV1.15B25,2013-08-16 14:51:00,
2013-08-16 09:53:00,63.3,60.0,30.05,SE,130,0.0,1.0,89,0.00,,,0.00,209,WeatherCatV1.15B25,2013-08-16 14:53:00,
2013-08-16 09:55:00,63.4,60.1,30.05,SE,130,0.0,0.0,89,0.00,,,0.00,178,WeatherCatV1.15B25,2013-08-16 14:55:00,
2013-08-16 09:56:00,63.5,60.2,30.05,SE,130,0.0,0.0,89,0.00,,,0.00,192,WeatherCatV1.15B25,2013-08-16 14:56:00,
2013-08-16 09:58:00,63.6,60.3,30.06,SE,130,0.0,2.0,89,0.00,,,0.00,236,WeatherCatV1.15B25,2013-08-16 14:58:00,
2013-08-16 10:00:00,63.7,60.1,30.06,SE,130,0.0,1.0,88,0.00,,,0.00,234,WeatherCatV1.15B25,2013-08-16 15:00:00,
2013-08-16 10:01:00,63.7,60.4,30.06,SE,130,0.0,0.0,89,0.00,,,0.00,216,WeatherCatV1.15B25,2013-08-16 15:01:00,
2013-08-16 10:03:00,63.8,60.2,30.06,SE,130,0.0,1.0,88,0.00,,,0.00,206,WeatherCatV1.15B25,2013-08-16 15:03:00,
2013-08-16 10:06:00,63.9,60.3,30.06,SE,130,0.0,2.0,88,0.00,,,0.00,209,WeatherCatV1.15B25,2013-08-16 15:06:00,
2013-08-16 10:08:00,63.9,60.3,30.06,SE,130,2.0,7.0,88,0.00,,,0.00,253,WeatherCatV1.15B25,2013-08-16 15:08:00,
2013-08-16 10:11:00,63.8,60.2,30.05,SE,130,2.0,5.0,88,0.00,,,0.00,290,WeatherCatV1.15B25,2013-08-16 15:11:00,
2013-08-16 10:12:00,63.8,60.2,30.06,SE,130,5.0,6.0,88,0.00,,,0.00,281,WeatherCatV1.15B25,2013-08-16 15:12:00,
2013-08-16 10:13:00,63.8,60.2,30.06,SE,130,0.0,6.0,88,0.00,,,0.00,267,WeatherCatV1.15B25,2013-08-16 15:13:00,
2013-08-16 10:14:00,63.7,60.1,30.06,SE,130,0.0,6.0,88,0.00,,,0.00,269,WeatherCatV1.15B25,2013-08-16 15:14:00,
2013-08-16 10:16:00,63.7,60.1,30.05,SE,130,0.0,0.0,88,0.00,,,0.00,264,WeatherCatV1.15B25,2013-08-16 15:16:00,
2013-08-16 10:17:00,63.8,60.2,30.05,SE,130,0.0,0.0,88,0.00,,,0.00,257,WeatherCatV1.15B25,2013-08-16 15:17:00,
2013-08-16 10:18:00,63.8,60.2,30.05,SE,130,0.0,0.0,88,0.00,,,0.00,262,WeatherCatV1.15B25,2013-08-16 15:18:00,
2013-08-16 10:19:00,63.9,60.3,30.05,SE,130,0.0,0.0,88,0.00,,,0.00,271,WeatherCatV1.15B25,2013-08-16 15:19:00,
2013-08-16 10:21:00,64.1,60.5,30.06,SE,130,0.0,0.0,88,0.00,,,0.00,279,WeatherCatV1.15B25,2013-08-16 15:21:00,
2013-08-16 10:22:00,64.1,60.5,30.06,SE,130,0.0,0.0,88,0.00,,,0.00,279,WeatherCatV1.15B25,2013-08-16 15:22:00,
2013-08-16 10:23:00,64.2,60.6,30.06,SE,130,3.0,4.0,88,0.00,,,0.00,276,WeatherCatV1.15B25,2013-08-16 15:23:00,
2013-08-16 10:24:00,64.2,60.2,30.06,SE,130,1.0,4.0,87,0.00,,,0.00,274,WeatherCatV1.15B25,2013-08-16 15:24:00,
2013-08-16 10:26:00,64.1,60.1,30.06,SE,130,3.0,5.0,87,0.00,,,0.00,272,WeatherCatV1.15B25,2013-08-16 15:26:00,
2013-08-16 10:27:00,64.0,60.0,30.06,SE,130,0.0,4.0,87,0.00,,,0.00,253,WeatherCatV1.15B25,2013-08-16 15:27:00,
2013-08-16 10:28:00,64.0,60.0,30.06,SE,130,0.0,1.0,87,0.00,,,0.00,271,WeatherCatV1.15B25,2013-08-16 15:28:00,
2013-08-16 10:29:00,64.1,60.1,30.06,SE,130,1.0,1.0,87,0.00,,,0.00,304,WeatherCatV1.15B25,2013-08-16 15:29:00,
2013-08-16 10:31:00,64.2,60.2,30.05,SE,130,0.0,2.0,87,0.00,,,0.00,308,WeatherCatV1.15B25,2013-08-16 15:31:00,
2013-08-16 10:33:00,64.3,60.3,30.06,SE,130,0.0,0.0,87,0.00,,,0.00,313,WeatherCatV1.15B25,2013-08-16 15:33:00,
2013-08-16 10:34:00,64.4,60.4,30.05,SE,130,0.0,0.0,87,0.00,,,0.00,320,WeatherCatV1.15B25,2013-08-16 15:34:00,
2013-08-16 10:36:00,64.7,60.7,30.06,SE,130,5.0,5.0,87,0.00,,,0.00,322,WeatherCatV1.15B25,2013-08-16 15:36:00,
2013-08-16 10:38:00,64.7,60.7,30.05,SE,130,0.0,5.0,87,0.00,,,0.00,352,WeatherCatV1.15B25,2013-08-16 15:38:00,
2013-08-16 10:39:00,64.7,60.7,30.05,SE,130,4.0,4.0,87,0.00,,,0.00,352,WeatherCatV1.15B25,2013-08-16 15:39:00,
2013-08-16 10:41:00,64.7,60.7,30.06,SE,130,0.0,0.0,87,0.00,,,0.00,269,WeatherCatV1.15B25,2013-08-16 15:41:00,
2013-08-16 10:43:00,64.7,60.4,30.06,SE,130,4.0,6.0,86,0.00,,,0.00,255,WeatherCatV1.15B25,2013-08-16 15:43:00,
2013-08-16 10:44:00,64.7,60.4,30.06,SE,130,4.0,6.0,86,0.00,,,0.00,255,WeatherCatV1.15B25,2013-08-16 15:44:00,
2013-08-16 10:46:00,64.6,60.3,30.06,SE,130,0.0,5.0,86,0.00,,,0.00,223,WeatherCatV1.15B25,2013-08-16 15:46:00,
2013-08-16 10:49:00,64.5,60.2,30.06,SE,130,0.0,2.0,86,0.00,,,0.00,221,WeatherCatV1.15B25,2013-08-16 15:49:00,
2013-08-16 10:52:00,64.5,60.2,30.06,SE,130,0.0,5.0,86,0.00,,,0.00,230,WeatherCatV1.15B25,2013-08-16 15:52:00,
2013-08-16 10:54:00,64.6,60.6,30.05,SE,130,0.0,0.0,87,0.00,,,0.00,237,WeatherCatV1.15B25,2013-08-16 15:54:00,
2013-08-16 10:55:00,64.7,60.7,30.05,SE,130,0.0,0.0,87,0.00,,,0.00,237,WeatherCatV1.15B25,2013-08-16 15:55:00,
2013-08-16 10:57:00,64.9,60.9,30.06,SE,130,1.0,2.0,87,0.00,,,0.00,299,WeatherCatV1.15B25,2013-08-16 15:57:00,
2013-08-16 10:59:00,64.9,60.6,30.06,SE,130,5.0,8.0,86,0.00,,,0.00,376,WeatherCatV1.15B25,2013-08-16 15:59:00,
2013-08-16 11:00:00,64.9,60.6,30.05,SE,130,0.0,5.0,86,0.00,,,0.00,371,WeatherCatV1.15B25,2013-08-16 16:00:00,
2013-08-16 11:02:00,65.0,60.7,30.06,SE,130,0.0,2.0,86,0.00,,,0.00,373,WeatherCatV1.15B25,2013-08-16 16:02:00,
2013-08-16 11:04:00,65.2,60.9,30.05,SE,130,0.0,6.0,86,0.00,,,0.00,339,WeatherCatV1.15B25,2013-08-16 16:04:00,
2013-08-16 11:05:00,65.2,60.6,30.06,SE,130,0.0,6.0,85,0.00,,,0.00,339,WeatherCatV1.15B25,2013-08-16 16:05:00,
2013-08-16 11:07:00,65.2,60.6,30.06,SE,130,0.0,4.0,85,0.00,,,0.00,350,WeatherCatV1.15B25,2013-08-16 16:07:00,
2013-08-16 11:10:00,65.3,60.7,30.06,SE,130,0.0,2.0,85,0.00,,,0.00,338,WeatherCatV1.15B25,2013-08-16 16:10:00,
2013-08-16 11:13:00,65.3,60.7,30.06,SE,130,7.0,7.0,85,0.00,,,0.00,343,WeatherCatV1.15B25,2013-08-16 16:13:00,
2013-08-16 11:15:00,65.2,60.6,30.06,SE,130,2.0,7.0,85,0.00,,,0.00,376,WeatherCatV1.15B25,2013-08-16 16:15:00,
2013-08-16 11:16:00,65.2,60.2,30.06,SE,130,2.0,5.0,84,0.00,,,0.00,390,WeatherCatV1.15B25,2013-08-16 16:16:00,
2013-08-16 11:18:00,65.4,60.8,30.06,SE,132,0.0,9.0,85,0.00,,,0.00,408,WeatherCatV1.15B25,2013-08-16 16:18:00,
2013-08-16 11:20:00,65.6,61.0,30.06,SE,132,0.0,1.0,85,0.00,,,0.00,399,WeatherCatV1.15B25,2013-08-16 16:20:00,
2013-08-16 11:21:00,65.6,61.0,30.05,SE,132,0.0,1.0,85,0.00,,,0.00,450,WeatherCatV1.15B25,2013-08-16 16:21:00,
2013-08-16 11:24:00,65.9,61.3,30.06,SE,132,3.0,5.0,85,0.00,,,0.00,403,WeatherCatV1.15B25,2013-08-16 16:24:00,
2013-08-16 11:25:00,66.1,61.5,30.06,SE,132,3.0,3.0,85,0.00,,,0.00,394,WeatherCatV1.15B25,2013-08-16 16:25:00,
2013-08-16 11:26:00,66.1,61.5,30.06,SE,132,2.0,3.0,85,0.00,,,0.00,383,WeatherCatV1.15B25,2013-08-16 16:26:00,
2013-08-16 11:29:00,66.2,61.2,30.06,SE,132,2.0,3.0,84,0.00,,,0.00,373,WeatherCatV1.15B25,2013-08-16 16:29:00,
2013-08-16 11:30:00,66.3,61.3,30.06,SE,132,8.0,8.0,84,0.00,,,0.00,413,WeatherCatV1.15B25,2013-08-16 16:30:00,
2013-08-16 11:31:00,66.2,61.2,30.06,SE,132,6.0,8.0,84,0.00,,,0.00,413,WeatherCatV1.15B25,2013-08-16 16:31:00,
2013-08-16 11:34:00,65.9,60.9,30.06,SE,131,6.0,6.0,84,0.00,,,0.00,397,WeatherCatV1.15B25,2013-08-16 16:34:00,
2013-08-16 11:36:00,65.9,60.9,30.06,SE,132,4.0,6.0,84,0.00,,,0.00,376,WeatherCatV1.15B25,2013-08-16 16:36:00,
2013-08-16 11:40:00,66.1,61.1,30.06,SE,132,0.0,5.0,84,0.00,,,0.00,357,WeatherCatV1.15B25,2013-08-16 16:40:00,
2013-08-16 11:41:00,66.1,61.1,30.06,SE,132,0.0,2.0,84,0.00,,,0.00,334,WeatherCatV1.15B25,2013-08-16 16:41:00,
2013-08-16 11:42:00,66.2,61.2,30.06,SE,132,1.0,2.0,84,0.00,,,0.00,322,WeatherCatV1.15B25,2013-08-16 16:42:00,
2013-08-16 11:45:00,66.4,61.4,30.06,SE,132,2.0,7.0,84,0.00,,,0.00,478,WeatherCatV1.15B25,2013-08-16 16:45:00,
2013-08-16 11:46:00,66.4,61.4,30.06,SE,132,0.0,7.0,84,0.00,,,0.00,471,WeatherCatV1.15B25,2013-08-16 16:46:00,
2013-08-16 11:47:00,66.5,61.5,30.06,SE,132,0.0,0.0,84,0.00,,,0.00,418,WeatherCatV1.15B25,2013-08-16 16:47:00,
2013-08-16 11:48:00,66.6,61.6,30.06,SE,132,0.0,0.0,84,0.00,,,0.00,385,WeatherCatV1.15B25,2013-08-16 16:48:00,
2013-08-16 11:50:00,67.1,62.1,30.06,SE,132,0.0,0.0,84,0.00,,,0.00,352,WeatherCatV1.15B25,2013-08-16 16:50:00,
2013-08-16 11:51:00,67.3,62.3,30.06,SE,132,0.0,0.0,84,0.00,,,0.00,348,WeatherCatV1.15B25,2013-08-16 16:51:00,
2013-08-16 11:52:00,67.4,62.4,30.06,SE,132,3.0,6.0,84,0.00,,,0.00,350,WeatherCatV1.15B25,2013-08-16 16:52:00,
2013-08-16 11:53:00,67.4,62.0,30.06,SE,132,4.0,6.0,83,0.00,,,0.00,357,WeatherCatV1.15B25,2013-08-16 16:53:00,
2013-08-16 11:55:00,67.5,61.8,30.06,SE,132,2.0,3.0,82,0.00,,,0.00,352,WeatherCatV1.15B25,2013-08-16 16:55:00,
2013-08-16 11:56:00,67.5,61.8,30.06,SE,132,2.0,2.0,82,0.00,,,0.00,334,WeatherCatV1.15B25,2013-08-16 16:56:00,
2013-08-16 11:57:00,67.5,61.8,30.06,SE,132,2.0,2.0,82,0.00,,,0.00,323,WeatherCatV1.15B25,2013-08-16 16:57:00,
2013-08-16 11:58:00,67.5,61.8,30.06,SE,132,2.0,2.0,82,0.00,,,0.00,334,WeatherCatV1.15B25,2013-08-16 16:58:00,
2013-08-16 12:00:00,67.4,61.7,30.06,SE,132,1.0,2.0,82,0.00,,,0.00,323,WeatherCatV1.15B25,2013-08-16 17:00:00,
2013-08-16 12:01:00,67.3,61.6,30.06,SE,132,2.0,2.0,82,0.00,,,0.00,294,WeatherCatV1.15B25,2013-08-16 17:01:00,
2013-08-16 12:02:00,67.3,61.6,30.06,SE,132,4.0,4.0,82,0.00,,,0.00,294,WeatherCatV1.15B25,2013-08-16 17:02:00,
2013-08-16 12:03:00,67.2,61.5,30.06,SE,132,3.0,4.0,82,0.00,,,0.00,255,WeatherCatV1.15B25,2013-08-16 17:03:00,
2013-08-16 12:05:00,67.0,61.3,30.06,SE,132,0.0,3.0,82,0.00,,,0.00,225,WeatherCatV1.15B25,2013-08-16 17:05:00,
2013-08-16 12:06:00,67.0,61.3,30.06,SE,132,0.0,1.0,82,0.00,,,0.00,214,WeatherCatV1.15B25,2013-08-16 17:06:00,
2013-08-16 12:07:00,67.0,61.3,30.06,SE,132,0.0,1.0,82,0.00,,,0.00,209,WeatherCatV1.15B25,2013-08-16 17:07:00,
2013-08-16 12:08:00,67.1,61.4,30.06,SE,132,0.0,0.0,82,0.00,,,0.00,207,WeatherCatV1.15B25,2013-08-16 17:08:00,
2013-08-16 12:10:00,67.2,61.9,30.06,SE,132,0.0,2.0,83,0.00,,,0.00,216,WeatherCatV1.15B25,2013-08-16 17:10:00,
2013-08-16 12:12:00,67.2,61.9,30.06,SE,132,0.0,0.0,83,0.00,,,0.00,216,WeatherCatV1.15B25,2013-08-16 17:12:00,
2013-08-16 12:13:00,67.3,62.0,30.06,SE,132,1.0,2.0,83,0.00,,,0.00,216,WeatherCatV1.15B25,2013-08-16 17:13:00,
2013-08-16 12:16:00,67.3,62.0,30.06,SE,132,2.0,4.0,83,0.00,,,0.00,229,WeatherCatV1.15B25,2013-08-16 17:16:00,
2013-08-16 12:18:00,67.3,62.0,30.06,SE,132,0.0,0.0,83,0.00,,,0.00,225,WeatherCatV1.15B25,2013-08-16 17:18:00,
2013-08-16 12:21:00,67.4,62.0,30.06,SE,132,0.0,1.0,83,0.00,,,0.00,236,WeatherCatV1.15B25,2013-08-16 17:21:00,
2013-08-16 12:23:00,67.5,62.1,30.06,SE,132,0.0,1.0,83,0.00,,,0.00,236,WeatherCatV1.15B25,2013-08-16 17:23:00,
2013-08-16 12:24:00,67.4,62.0,30.06,SE,132,1.0,3.0,83,0.00,,,0.00,243,WeatherCatV1.15B25,2013-08-16 17:24:00,
2013-08-16 12:26:00,67.5,62.1,30.06,SE,132,0.0,0.0,83,0.00,,,0.00,257,WeatherCatV1.15B25,2013-08-16 17:26:00,
2013-08-16 12:28:00,67.5,62.1,30.07,SE,132,1.0,4.0,83,0.00,,,0.00,239,WeatherCatV1.15B25,2013-08-16 17:28:00,
2013-08-16 12:29:00,67.5,61.8,30.07,SE,132,0.0,4.0,82,0.00,,,0.00,232,WeatherCatV1.15B25,2013-08-16 17:29:00,
2013-08-16 12:32:00,67.5,61.8,30.06,SE,132,3.0,3.0,82,0.00,,,0.00,207,WeatherCatV1.15B25,2013-08-16 17:32:00,
2013-08-16 12:33:00,67.4,61.7,30.06,SE,132,0.0,3.0,82,0.00,,,0.00,204,WeatherCatV1.15B25,2013-08-16 17:33:00,
2013-08-16 12:34:00,67.4,61.7,30.06,SE,132,2.0,2.0,82,0.00,,,0.00,207,WeatherCatV1.15B25,2013-08-16 17:34:00,
2013-08-16 12:37:00,67.2,61.5,30.06,SE,132,0.0,0.0,82,0.00,,,0.00,209,WeatherCatV1.15B25,2013-08-16 17:37:00,
2013-08-16 12:38:00,67.3,61.6,30.06,SE,132,0.0,0.0,82,0.00,,,0.00,207,WeatherCatV1.15B25,2013-08-16 17:38:00,
2013-08-16 12:39:00,67.4,62.0,30.06,SE,132,0.0,0.0,83,0.00,,,0.00,202,WeatherCatV1.15B25,2013-08-16 17:39:00,
2013-08-16 12:42:00,67.4,61.7,30.06,SE,132,0.0,0.0,82,0.00,,,0.00,185,WeatherCatV1.15B25,2013-08-16 17:42:00,
2013-08-16 12:43:00,67.4,61.7,30.06,SE,132,0.0,0.0,82,0.00,,,0.00,186,WeatherCatV1.15B25,2013-08-16 17:43:00,
2013-08-16 12:44:00,67.4,61.7,30.06,SE,132,0.0,0.0,82,0.00,,,0.00,214,WeatherCatV1.15B25,2013-08-16 17:44:00,
2013-08-16 12:48:00,67.3,61.6,30.06,SE,132,0.0,5.0,82,0.00,,,0.00,227,WeatherCatV1.15B25,2013-08-16 17:48:00,
2013-08-16 12:49:00,67.3,61.6,30.07,SE,132,0.0,1.0,82,0.00,,,0.00,216,WeatherCatV1.15B25,2013-08-16 17:49:00,
2013-08-16 12:50:00,67.3,61.6,30.07,SE,132,0.0,1.0,82,0.00,,,0.00,206,WeatherCatV1.15B25,2013-08-16 17:50:00,
2013-08-16 12:53:00,67.2,61.5,30.06,SE,132,0.0,3.0,82,0.00,,,0.00,199,WeatherCatV1.15B25,2013-08-16 17:53:00,
2013-08-16 12:54:00,67.2,61.5,30.06,SE,132,0.0,3.0,82,0.00,,,0.00,202,WeatherCatV1.15B25,2013-08-16 17:54:00,
2013-08-16 12:55:00,67.2,61.5,30.06,SE,132,0.0,1.0,82,0.00,,,0.00,207,WeatherCatV1.15B25,2013-08-16 17:55:00,
2013-08-16 12:58:00,67.2,61.9,30.06,SE,132,0.0,2.0,83,0.00,,,0.00,264,WeatherCatV1.15B25,2013-08-16 17:58:00,
2013-08-16 12:59:00,67.2,61.9,30.06,SE,132,0.0,4.0,83,0.00,,,0.00,285,WeatherCatV1.15B25,2013-08-16 17:59:00,
2013-08-16 13:00:00,67.3,62.0,30.06,SE,132,0.0,4.0,83,0.00,,,0.00,292,WeatherCatV1.15B25,2013-08-16 18:00:00,
2013-08-16 13:03:00,67.4,62.0,30.06,SE,132,3.0,3.0,83,0.00,,,0.00,287,WeatherCatV1.15B25,2013-08-16 18:03:00,
2013-08-16 13:04:00,67.5,62.1,30.06,SE,132,0.0,4.0,83,0.00,,,0.00,283,WeatherCatV1.15B25,2013-08-16 18:04:00,
2013-08-16 13:05:00,67.5,62.1,30.06,SE,132,1.0,4.0,83,0.00,,,0.00,271,WeatherCatV1.15B25,2013-08-16 18:05:00,
2013-08-16 13:08:00,67.4,61.7,30.06,SE,132,0.0,3.0,82,0.00,,,0.00,213,WeatherCatV1.15B25,2013-08-16 18:08:00,
2013-08-16 13:09:00,67.5,62.1,30.06,SE,132,0.0,0.0,83,0.00,,,0.00,236,WeatherCatV1.15B25,2013-08-16 18:09:00,
2013-08-16 13:10:00,67.5,62.1,30.06,SE,132,0.0,0.0,83,0.00,,,0.00,257,WeatherCatV1.15B25,2013-08-16 18:10:00,
2013-08-16 13:13:00,67.6,61.9,30.06,SE,133,0.0,6.0,82,0.00,,,0.00,253,WeatherCatV1.15B25,2013-08-16 18:13:00,
2013-08-16 13:14:00,67.6,61.9,30.06,SE,132,6.0,6.0,82,0.00,,,0.00,250,WeatherCatV1.15B25,2013-08-16 18:14:00,
2013-08-16 13:15:00,67.6,61.9,30.06,SE,133,3.0,6.0,82,0.00,,,0.00,250,WeatherCatV1.15B25,2013-08-16 18:15:00,
2013-08-16 13:18:00,67.6,62.2,30.06,SE,133,0.0,0.0,83,0.00,,,0.00,248,WeatherCatV1.15B25,2013-08-16 18:18:00,
2013-08-16 13:19:00,67.6,62.2,30.06,SE,133,1.0,1.0,83,0.00,,,0.00,248,WeatherCatV1.15B25,2013-08-16 18:19:00,
2013-08-16 13:20:00,67.7,62.3,30.06,SE,133,0.0,1.0,83,0.00,,,0.00,251,WeatherCatV1.15B25,2013-08-16 18:20:00,
2013-08-16 13:21:00,67.7,62.0,30.06,SE,133,0.0,1.0,82,0.00,,,0.00,257,WeatherCatV1.15B25,2013-08-16 18:21:00,
2013-08-16 13:24:00,67.8,62.1,30.06,SE,133,0.0,5.0,82,0.00,,,0.00,248,WeatherCatV1.15B25,2013-08-16 18:24:00,
2013-08-16 13:25:00,67.8,62.1,30.06,SE,133,2.0,2.0,82,0.00,,,0.00,237,WeatherCatV1.15B25,2013-08-16 18:25:00,
2013-08-16 13:26:00,67.8,62.1,30.06,SE,133,0.0,4.0,82,0.00,,,0.00,236,WeatherCatV1.15B25,2013-08-16 18:26:00,
2013-08-16 13:29:00,67.9,62.2,30.06,SE,132,2.0,2.0,82,0.00,,,0.00,241,WeatherCatV1.15B25,2013-08-16 18:29:00,
2013-08-16 13:30:00,67.8,62.1,30.06,SE,133,0.0,5.0,82,0.00,,,0.00,243,WeatherCatV1.15B25,2013-08-16 18:30:00,
2013-08-16 13:31:00,67.8,62.1,30.06,SE,133,0.0,5.0,82,0.00,,,0.00,244,WeatherCatV1.15B25,2013-08-16 18:31:00,
2013-08-16 13:34:00,67.7,61.7,30.06,SE,133,0.0,6.0,81,0.00,,,0.00,250,WeatherCatV1.15B25,2013-08-16 18:34:00,
2013-08-16 13:35:00,67.7,62.0,30.05,SE,133,3.0,3.0,82,0.00,,,0.00,251,WeatherCatV1.15B25,2013-08-16 18:35:00,
2013-08-16 13:36:00,67.6,61.9,30.05,SE,133,3.0,3.0,82,0.00,,,0.00,251,WeatherCatV1.15B25,2013-08-16 18:36:00,
2013-08-16 13:39:00,67.5,61.8,30.05,SE,133,0.0,5.0,82,0.00,,,0.00,236,WeatherCatV1.15B25,2013-08-16 18:39:00,
2013-08-16 13:40:00,67.5,61.8,30.05,SE,133,2.0,5.0,82,0.00,,,0.00,232,WeatherCatV1.15B25,2013-08-16 18:40:00,
2013-08-16 13:41:00,67.5,61.8,30.05,SE,132,2.0,4.0,82,0.00,,,0.00,225,WeatherCatV1.15B25,2013-08-16 18:41:00,
2013-08-16 13:44:00,67.5,61.8,30.05,SE,133,0.0,4.0,82,0.00,,,0.00,234,WeatherCatV1.15B25,2013-08-16 18:44:00,
2013-08-16 13:45:00,67.5,61.8,30.05,SE,132,3.0,4.0,82,0.00,,,0.00,239,WeatherCatV1.15B25,2013-08-16 18:45:00,
2013-08-16 13:46:00,67.5,61.8,30.05,SE,132,2.0,3.0,82,0.00,,,0.00,248,WeatherCatV1.15B25,2013-08-16 18:46:00,
2013-08-16 13:49:00,67.5,62.1,30.05,SE,133,5.0,5.0,83,0.00,,,0.00,246,WeatherCatV1.15B25,2013-08-16 18:49:00,
2013-08-16 13:50:00,67.5,61.8,30.05,SE,133,3.0,8.0,82,0.00,,,0.00,250,WeatherCatV1.15B25,2013-08-16 18:50:00,
2013-08-16 13:51:00,67.5,61.8,30.05,SE,133,0.0,8.0,82,0.00,,,0.00,250,WeatherCatV1.15B25,2013-08-16 18:51:00,
2013-08-16 13:52:00,67.5,62.1,30.05,SE,133,0.0,5.0,83,0.00,,,0.00,250,WeatherCatV1.15B25,2013-08-16 18:52:00,
2013-08-16 13:54:00,67.6,61.9,30.05,SE,132,0.0,2.0,82,0.00,,,0.00,227,WeatherCatV1.15B25,2013-08-16 18:54:00,
2013-08-16 13:56:00,67.6,61.9,30.05,SE,133,0.0,2.0,82,0.00,,,0.00,237,WeatherCatV1.15B25,2013-08-16 18:56:00,
2013-08-16 13:57:00,67.6,62.2,30.05,SE,132,1.0,5.0,83,0.00,,,0.00,260,WeatherCatV1.15B25,2013-08-16 18:57:00,
2013-08-16 13:59:00,67.6,61.9,30.05,SE,133,0.0,3.0,82,0.00,,,0.00,287,WeatherCatV1.15B25,2013-08-16 18:59:00,
2013-08-16 14:01:00,67.7,62.0,30.05,SE,133,0.0,4.0,82,0.00,,,0.00,269,WeatherCatV1.15B25,2013-08-16 19:01:00,
2013-08-16 14:02:00,67.7,62.0,30.05,SE,133,0.0,4.0,82,0.00,,,0.00,253,WeatherCatV1.15B25,2013-08-16 19:02:00,
2013-08-16 14:04:00,67.9,62.2,30.05,SE,133,0.0,4.0,82,0.00,,,0.00,253,WeatherCatV1.15B25,2013-08-16 19:04:00,
2013-08-16 14:06:00,68.0,62.3,30.05,SE,133,0.0,1.0,82,0.00,,,0.00,283,WeatherCatV1.15B25,2013-08-16 19:06:00,
2013-08-16 14:07:00,68.0,62.6,30.05,SE,133,0.0,0.0,83,0.00,,,0.00,283,WeatherCatV1.15B25,2013-08-16 19:07:00,
2013-08-16 14:10:00,68.2,62.8,30.05,SE,133,0.0,0.0,83,0.00,,,0.00,246,WeatherCatV1.15B25,2013-08-16 19:10:00,
2013-08-16 14:11:00,68.3,62.9,30.05,SE,133,0.0,0.0,83,0.00,,,0.00,195,WeatherCatV1.15B25,2013-08-16 19:11:00,
2013-08-16 14:12:00,68.4,63.0,30.05,SE,133,0.0,0.0,83,0.00,,,0.00,176,WeatherCatV1.15B25,2013-08-16 19:12:00,
2013-08-16 14:13:00,68.5,62.8,30.05,SE,133,0.0,1.0,82,0.00,,,0.00,162,WeatherCatV1.15B25,2013-08-16 19:13:00,
2013-08-16 14:15:00,68.5,62.8,30.05,SE,133,0.0,2.0,82,0.00,,,0.00,142,WeatherCatV1.15B25,2013-08-16 19:15:00,
2013-08-16 14:16:00,68.5,62.8,30.05,SE,132,0.0,2.0,82,0.00,,,0.00,132,WeatherCatV1.15B25,2013-08-16 19:16:00,
2013-08-16 14:17:00,68.5,62.8,30.05,SE,133,0.0,2.0,82,0.00,,,0.00,132,WeatherCatV1.15B25,2013-08-16 19:17:00,
2013-08-16 14:18:00,68.5,62.8,30.05,SE,133,0.0,2.0,82,0.00,,,0.00,130,WeatherCatV1.15B25,2013-08-16 19:18:00,
2013-08-16 14:20:00,68.5,62.8,30.05,SE,133,0.0,0.0,82,0.00,,,0.00,128,WeatherCatV1.15B25,2013-08-16 19:20:00,
2013-08-16 14:21:00,68.4,62.7,30.05,SE,133,0.0,3.0,82,0.00,,,0.00,137,WeatherCatV1.15B25,2013-08-16 19:21:00,
2013-08-16 14:22:00,68.4,62.7,30.05,SE,133,0.0,3.0,82,0.00,,,0.00,141,WeatherCatV1.15B25,2013-08-16 19:22:00,
2013-08-16 14:23:00,68.4,62.7,30.05,SE,133,0.0,0.0,82,0.00,,,0.00,146,WeatherCatV1.15B25,2013-08-16 19:23:00,
2013-08-16 14:25:00,68.2,62.5,30.05,SE,133,0.0,5.0,82,0.00,,,0.00,151,WeatherCatV1.15B25,2013-08-16 19:25:00,
2013-08-16 14:27:00,68.1,62.4,30.05,SE,133,0.0,0.0,82,0.00,,,0.00,155,WeatherCatV1.15B25,2013-08-16 19:27:00,
2013-08-16 14:28:00,68.1,62.4,30.05,SE,132,3.0,3.0,82,0.00,,,0.00,160,WeatherCatV1.15B25,2013-08-16 19:28:00,
2013-08-16 14:30:00,67.9,62.2,30.05,SE,133,0.0,3.0,82,0.00,,,0.00,179,WeatherCatV1.15B25,2013-08-16 19:30:00,
2013-08-16 14:32:00,67.9,62.2,30.05,SE,133,0.0,2.0,82,0.00,,,0.00,220,WeatherCatV1.15B25,2013-08-16 19:32:00,
2013-08-16 14:33:00,67.9,62.2,30.05,SE,133,2.0,3.0,82,0.00,,,0.00,241,WeatherCatV1.15B25,2013-08-16 19:33:00,
2013-08-16 14:34:00,67.9,62.2,30.05,SE,133,0.0,3.0,82,0.00,,,0.00,246,WeatherCatV1.15B25,2013-08-16 19:34:00,
2013-08-16 14:36:00,67.8,62.1,30.05,SE,132,0.0,4.0,82,0.00,,,0.00,229,WeatherCatV1.15B25,2013-08-16 19:36:00,
2013-08-16 14:37:00,67.9,62.2,30.05,SE,132,0.0,2.0,82,0.00,,,0.00,232,WeatherCatV1.15B25,2013-08-16 19:37:00,
2013-08-16 14:38:00,67.9,62.2,30.05,SE,133,0.0,4.0,82,0.00,,,0.00,232,WeatherCatV1.15B25,2013-08-16 19:38:00,
2013-08-16 14:39:00,67.9,62.2,30.05,SE,133,0.0,4.0,82,0.00,,,0.00,232,WeatherCatV1.15B25,2013-08-16 19:39:00,
2013-08-16 14:41:00,68.0,62.3,30.05,SE,132,0.0,4.0,82,0.00,,,0.00,218,WeatherCatV1.15B25,2013-08-16 19:41:00,
2013-08-16 14:42:00,68.0,62.3,30.05,SE,133,0.0,0.0,82,0.00,,,0.00,207,WeatherCatV1.15B25,2013-08-16 19:42:00,
2013-08-16 14:43:00,68.1,62.7,30.05,SE,133,0.0,2.0,83,0.00,,,0.00,192,WeatherCatV1.15B25,2013-08-16 19:43:00,
2013-08-16 14:44:00,68.1,62.7,30.05,SE,133,4.0,4.0,83,0.00,,,0.00,178,WeatherCatV1.15B25,2013-08-16 19:44:00,
2013-08-16 14:46:00,68.1,62.4,30.05,SE,133,0.0,4.0,82,0.00,,,0.00,153,WeatherCatV1.15B25,2013-08-16 19:46:00,
2013-08-16 14:47:00,68.0,62.3,30.05,SE,133,1.0,2.0,82,0.00,,,0.00,149,WeatherCatV1.15B25,2013-08-16 19:47:00,
2013-08-16 14:48:00,68.0,62.3,30.05,SE,132,1.0,3.0,82,0.00,,,0.00,146,WeatherCatV1.15B25,2013-08-16 19:48:00,
2013-08-16 14:50:00,67.9,62.2,30.05,SE,133,2.0,3.0,82,0.00,,,0.00,142,WeatherCatV1.15B25,2013-08-16 19:50:00,
2013-08-16 14:52:00,67.9,62.5,30.05,SE,133,3.0,4.0,83,0.00,,,0.00,130,WeatherCatV1.15B25,2013-08-16 19:52:00,
2013-08-16 14:53:00,67.9,62.5,30.05,SE,133,0.0,4.0,83,0.00,,,0.00,125,WeatherCatV1.15B25,2013-08-16 19:53:00,
2013-08-16 14:54:00,67.8,62.4,30.05,SE,133,0.0,4.0,83,0.00,,,0.00,121,WeatherCatV1.15B25,2013-08-16 19:54:00,
2013-08-16 14:55:00,67.9,62.5,30.05,SE,133,2.0,2.0,83,0.00,,,0.00,118,WeatherCatV1.15B25,2013-08-16 19:55:00,
2013-08-16 14:57:00,67.8,62.4,30.05,SE,133,0.0,4.0,83,0.00,,,0.00,121,WeatherCatV1.15B25,2013-08-16 19:57:00,
2013-08-16 14:58:00,67.9,62.5,30.05,SE,133,0.0,1.0,83,0.00,,,0.00,123,WeatherCatV1.15B25,2013-08-16 19:58:00,
2013-08-16 15:00:00,67.9,62.5,30.05,SE,133,1.0,3.0,83,0.00,,,0.00,118,WeatherCatV1.15B25,2013-08-16 20:00:00,
2013-08-16 15:02:00,67.8,62.4,30.05,SE,133,2.0,6.0,83,0.00,,,0.00,111,WeatherCatV1.15B25,2013-08-16 20:02:00,
2013-08-16 15:03:00,67.8,62.4,30.05,SE,133,1.0,6.0,83,0.00,,,0.00,111,WeatherCatV1.15B25,2013-08-16 20:03:00,
2013-08-16 15:04:00,67.7,62.3,30.05,SE,133,1.0,3.0,83,0.00,,,0.00,113,WeatherCatV1.15B25,2013-08-16 20:04:00,
2013-08-16 15:05:00,67.7,62.3,30.05,SE,132,1.0,3.0,83,0.00,,,0.00,113,WeatherCatV1.15B25,2013-08-16 20:05:00,
2013-08-16 15:07:00,67.7,62.7,30.05,SE,133,0.0,4.0,84,0.00,,,0.00,123,WeatherCatV1.15B25,2013-08-16 20:07:00,
2013-08-16 15:08:00,67.7,62.7,30.05,SE,133,0.0,4.0,84,0.00,,,0.00,123,WeatherCatV1.15B25,2013-08-16 20:08:00,
2013-08-16 15:09:00,67.7,62.7,30.05,SE,133,0.0,3.0,84,0.00,,,0.00,135,WeatherCatV1.15B25,2013-08-16 20:09:00,
2013-08-16 15:10:00,67.7,62.7,30.05,SE,133,3.0,3.0,84,0.00,,,0.00,142,WeatherCatV1.15B25,2013-08-16 20:10:00,
2013-08-16 15:13:00,67.7,62.7,30.05,SE,133,2.0,6.0,84,0.00,,,0.00,155,WeatherCatV1.15B25,2013-08-16 20:13:00,
2013-08-16 15:14:00,67.7,62.7,30.05,SE,133,0.0,6.0,84,0.00,,,0.00,148,WeatherCatV1.15B25,2013-08-16 20:14:00,
2013-08-16 15:15:00,67.7,62.7,30.05,SE,133,1.0,4.0,84,0.00,,,0.00,141,WeatherCatV1.15B25,2013-08-16 20:15:00,
2013-08-16 15:18:00,67.7,62.7,30.05,SE,133,3.0,4.0,84,0.00,,,0.00,121,WeatherCatV1.15B25,2013-08-16 20:18:00,
2013-08-16 15:19:00,67.7,62.7,30.05,SE,133,4.0,4.0,84,0.00,,,0.00,118,WeatherCatV1.15B25,2013-08-16 20:19:00,
2013-08-16 15:20:00,67.6,62.6,30.05,SE,133,0.0,4.0,84,0.00,,,0.00,114,WeatherCatV1.15B25,2013-08-16 20:20:00,
2013-08-16 15:23:00,67.6,62.6,30.05,SE,132,0.0,6.0,84,0.00,,,0.00,116,WeatherCatV1.15B25,2013-08-16 20:23:00,
2013-08-16 15:24:00,67.6,62.6,30.05,SE,132,3.0,6.0,84,0.00,,,0.00,127,WeatherCatV1.15B25,2013-08-16 20:24:00,
2013-08-16 15:25:00,67.5,62.5,30.05,SE,132,1.0,4.0,84,0.00,,,0.00,132,WeatherCatV1.15B25,2013-08-16 20:25:00,
2013-08-16 15:28:00,67.5,62.5,30.05,SE,133,0.0,2.0,84,0.00,,,0.00,153,WeatherCatV1.15B25,2013-08-16 20:28:00,
2013-08-16 15:29:00,67.6,62.6,30.05,SE,133,0.0,2.0,84,0.00,,,0.00,146,WeatherCatV1.15B25,2013-08-16 20:29:00,
2013-08-16 15:30:00,67.6,62.6,30.05,SE,133,0.0,0.0,84,0.00,,,0.00,139,WeatherCatV1.15B25,2013-08-16 20:30:00,
2013-08-16 15:33:00,67.7,62.7,30.05,SE,133,0.0,5.0,84,0.00,,,0.00,132,WeatherCatV1.15B25,2013-08-16 20:33:00,
2013-08-16 15:34:00,67.7,62.7,30.05,SE,133,0.0,2.0,84,0.00,,,0.00,132,WeatherCatV1.15B25,2013-08-16 20:34:00,
2013-08-16 15:35:00,67.7,62.7,30.05,SE,133,0.0,3.0,84,0.00,,,0.00,128,WeatherCatV1.15B25,2013-08-16 20:35:00,
2013-08-16 15:38:00,67.8,62.8,30.05,SE,133,2.0,2.0,84,0.00,,,0.00,130,WeatherCatV1.15B25,2013-08-16 20:38:00,
2013-08-16 15:39:00,67.8,62.8,30.05,SE,133,0.0,2.0,84,0.00,,,0.00,130,WeatherCatV1.15B25,2013-08-16 20:39:00,
2013-08-16 15:41:00,67.9,62.9,30.05,SE,133,0.0,3.0,84,0.00,,,0.00,135,WeatherCatV1.15B25,2013-08-16 20:41:00,
2013-08-16 15:43:00,67.9,62.9,30.05,SE,133,0.0,1.0,84,0.00,,,0.00,144,WeatherCatV1.15B25,2013-08-16 20:43:00,
2013-08-16 15:44:00,67.9,62.9,30.05,SE,133,0.0,1.0,84,0.00,,,0.00,139,WeatherCatV1.15B25,2013-08-16 20:44:00,
2013-08-16 15:46:00,67.9,62.9,30.05,SE,133,1.0,1.0,84,0.00,,,0.00,134,WeatherCatV1.15B25,2013-08-16 20:46:00,
2013-08-16 15:49:00,68.0,62.6,30.05,SE,133,0.0,5.0,83,0.00,,,0.00,141,WeatherCatV1.15B25,2013-08-16 20:49:00,
2013-08-16 15:51:00,68.0,63.0,30.05,SE,133,1.0,3.0,84,0.00,,,0.00,148,WeatherCatV1.15B25,2013-08-16 20:51:00,
2013-08-16 15:54:00,68.0,62.6,30.05,SE,133,0.0,0.0,83,0.00,,,0.00,148,WeatherCatV1.15B25,2013-08-16 20:54:00,
2013-08-16 15:56:00,68.2,63.2,30.05,SE,133,0.0,0.0,84,0.00,,,0.00,144,WeatherCatV1.15B25,2013-08-16 20:56:00,
2013-08-16 15:59:00,68.2,63.2,30.05,SE,133,1.0,1.0,84,0.00,,,0.00,141,WeatherCatV1.15B25,2013-08-16 20:59:00,
2013-08-16 16:01:00,68.2,63.2,30.05,SE,133,0.0,2.0,84,0.00,,,0.00,176,WeatherCatV1.15B25,2013-08-16 21:01:00,
2013-08-16 16:02:00,68.2,63.2,30.05,SE,133,0.0,0.0,84,0.00,,,0.00,176,WeatherCatV1.15B25,2013-08-16 21:02:00,
2013-08-16 16:04:00,68.4,63.4,30.05,SE,133,0.0,0.0,84,0.00,,,0.00,218,WeatherCatV1.15B25,2013-08-16 21:04:00,
2013-08-16 16:05:00,68.4,63.4,30.05,SE,133,2.0,2.0,84,0.00,,,0.00,218,WeatherCatV1.15B25,2013-08-16 21:05:00,
2013-08-16 16:07:00,68.4,63.0,30.05,SE,133,0.0,3.0,83,0.00,,,0.00,209,WeatherCatV1.15B25,2013-08-16 21:07:00,
2013-08-16 16:10:00,68.6,63.6,30.05,SE,133,2.0,2.0,84,0.00,,,0.00,204,WeatherCatV1.15B25,2013-08-16 21:10:00,
2013-08-16 16:12:00,68.6,63.2,30.05,SE,133,0.0,4.0,83,0.00,,,0.00,190,WeatherCatV1.15B25,2013-08-16 21:12:00,
2013-08-16 16:15:00,68.7,63.3,30.06,SE,133,0.0,0.0,83,0.00,,,0.00,190,WeatherCatV1.15B25,2013-08-16 21:15:00,
2013-08-16 16:17:00,68.8,63.4,30.06,SE,133,3.0,3.0,83,0.00,,,0.00,207,WeatherCatV1.15B25,2013-08-16 21:17:00,
2013-08-16 16:20:00,68.7,63.3,30.05,SE,133,2.0,2.0,83,0.00,,,0.00,192,WeatherCatV1.15B25,2013-08-16 21:20:00,
2013-08-16 16:22:00,68.7,63.3,30.05,SE,133,7.0,7.0,83,0.00,,,0.00,162,WeatherCatV1.15B25,2013-08-16 21:22:00,
2013-08-16 16:25:00,68.5,63.1,30.05,SE,133,0.0,3.0,83,0.00,,,0.00,153,WeatherCatV1.15B25,2013-08-16 21:25:00,
2013-08-16 16:27:00,68.5,63.1,30.05,SE,133,0.0,0.0,83,0.00,,,0.00,149,WeatherCatV1.15B25,2013-08-16 21:27:00,
2013-08-16 16:30:00,68.5,63.1,30.05,SE,133,0.0,1.0,83,0.00,,,0.00,148,WeatherCatV1.15B25,2013-08-16 21:30:00,
2013-08-16 16:31:00,68.5,63.1,30.05,SE,133,0.0,1.0,83,0.00,,,0.00,144,WeatherCatV1.15B25,2013-08-16 21:31:00,
2013-08-16 16:32:00,68.4,63.0,30.05,SE,133,0.0,3.0,83,0.00,,,0.00,139,WeatherCatV1.15B25,2013-08-16 21:32:00,
2013-08-16 16:35:00,68.4,63.4,30.05,SE,133,0.0,1.0,84,0.00,,,0.00,128,WeatherCatV1.15B25,2013-08-16 21:35:00,
2013-08-16 16:36:00,68.4,63.4,30.05,SE,133,0.0,1.0,84,0.00,,,0.00,128,WeatherCatV1.15B25,2013-08-16 21:36:00,
2013-08-16 16:37:00,68.5,63.5,30.05,SE,133,0.0,0.0,84,0.00,,,0.00,128,WeatherCatV1.15B25,2013-08-16 21:37:00,
2013-08-16 16:40:00,68.5,63.5,30.05,SE,133,0.0,0.0,84,0.00,,,0.00,135,WeatherCatV1.15B25,2013-08-16 21:40:00,
2013-08-16 16:41:00,68.5,63.5,30.05,SE,133,0.0,0.0,84,0.00,,,0.00,137,WeatherCatV1.15B25,2013-08-16 21:41:00,
2013-08-16 16:43:00,68.5,63.5,30.05,SE,133,0.0,4.0,84,0.00,,,0.00,141,WeatherCatV1.15B25,2013-08-16 21:43:00,
2013-08-16 16:46:00,68.6,63.6,30.05,SE,133,0.0,3.0,84,0.00,,,0.00,139,WeatherCatV1.15B25,2013-08-16 21:46:00,
2013-08-16 16:48:00,68.5,63.1,30.05,SE,133,2.0,2.0,83,0.00,,,0.00,142,WeatherCatV1.15B25,2013-08-16 21:48:00,
2013-08-16 16:51:00,68.5,63.1,30.05,SE,133,0.0,1.0,83,0.00,,,0.00,155,WeatherCatV1.15B25,2013-08-16 21:51:00,
2013-08-16 16:53:00,68.5,63.1,30.05,SE,133,0.0,1.0,83,0.00,,,0.00,171,WeatherCatV1.15B25,2013-08-16 21:53:00,
2013-08-16 16:56:00,68.6,63.2,30.05,SE,133,0.0,2.0,83,0.00,,,0.00,207,WeatherCatV1.15B25,2013-08-16 21:56:00,
2013-08-16 16:59:00,68.6,63.2,30.05,SE,133,0.0,0.0,83,0.00,,,0.00,197,WeatherCatV1.15B25,2013-08-16 21:59:00,
2013-08-16 17:01:00,68.9,63.5,30.05,SE,133,0.0,0.0,83,0.00,,,0.00,165,WeatherCatV1.15B25,2013-08-16 22:01:00,
2013-08-16 17:04:00,69.0,63.6,30.05,SE,133,0.0,0.0,83,0.00,,,0.00,151,WeatherCatV1.15B25,2013-08-16 22:04:00,
2013-08-16 17:06:00,69.1,63.7,30.05,SE,133,0.0,0.0,83,0.00,,,0.00,123,WeatherCatV1.15B25,2013-08-16 22:06:00,
2013-08-16 17:07:00,69.1,63.7,30.05,SE,133,2.0,2.0,83,0.00,,,0.00,123,WeatherCatV1.15B25,2013-08-16 22:07:00,
2013-08-16 17:09:00,69.1,63.4,30.05,SE,133,1.0,2.0,82,0.00,,,0.00,114,WeatherCatV1.15B25,2013-08-16 22:09:00,
2013-08-16 17:11:00,69.0,63.3,30.05,SE,133,0.0,3.0,82,0.00,,,0.00,113,WeatherCatV1.15B25,2013-08-16 22:11:00,
2013-08-16 17:12:00,69.0,63.3,30.05,SE,133,0.0,3.0,82,0.00,,,0.00,111,WeatherCatV1.15B25,2013-08-16 22:12:00,
2013-08-16 17:14:00,69.0,63.3,30.05,SE,133,1.0,2.0,82,0.00,,,0.00,114,WeatherCatV1.15B25,2013-08-16 22:14:00,
2013-08-16 17:17:00,68.9,63.2,30.05,SE,133,0.0,0.0,82,0.00,,,0.00,132,WeatherCatV1.15B25,2013-08-16 22:17:00,
2013-08-16 17:19:00,69.0,63.6,30.05,SE,133,0.0,0.0,83,0.00,,,0.00,135,WeatherCatV1.15B25,2013-08-16 22:19:00,
2013-08-16 17:22:00,69.1,63.7,30.05,SE,133,0.0,3.0,83,0.00,,,0.00,128,WeatherCatV1.15B25,2013-08-16 22:22:00,
2013-08-16 17:24:00,69.1,63.7,30.05,SE,133,0.0,2.0,83,0.00,,,0.00,132,WeatherCatV1.15B25,2013-08-16 22:24:00,
2013-08-16 17:27:00,69.0,63.6,30.05,SE,133,3.0,5.0,83,0.00,,,0.00,146,WeatherCatV1.15B25,2013-08-16 22:27:00,
2013-08-16 17:29:00,69.0,63.6,30.05,SE,133,0.0,3.0,83,0.00,,,0.00,176,WeatherCatV1.15B25,2013-08-16 22:29:00,
2013-08-16 17:32:00,69.0,63.6,30.05,SE,133,0.0,0.0,83,0.00,,,0.00,176,WeatherCatV1.15B25,2013-08-16 22:32:00,
2013-08-16 17:33:00,69.0,63.6,30.05,SE,133,0.0,0.0,83,0.00,,,0.00,176,WeatherCatV1.15B25,2013-08-16 22:33:00,
2013-08-16 17:34:00,69.2,63.8,30.05,SE,133,0.0,0.0,83,0.00,,,0.00,176,WeatherCatV1.15B25,2013-08-16 22:34:00,
2013-08-16 17:35:00,69.2,63.8,30.05,SE,133,0.0,0.0,83,0.00,,,0.00,178,WeatherCatV1.15B25,2013-08-16 22:35:00,
2013-08-16 17:37:00,69.3,63.6,30.05,SE,133,0.0,0.0,82,0.00,,,0.00,165,WeatherCatV1.15B25,2013-08-16 22:37:00,
2013-08-16 17:38:00,69.4,63.7,30.05,SE,133,0.0,0.0,82,0.00,,,0.00,165,WeatherCatV1.15B25,2013-08-16 22:38:00,
2013-08-16 17:40:00,69.5,63.8,30.05,SE,133,0.0,0.0,82,0.00,,,0.00,107,WeatherCatV1.15B25,2013-08-16 22:40:00,
2013-08-16 17:42:00,69.6,63.9,30.05,SE,133,0.0,2.0,82,0.00,,,0.00,83,WeatherCatV1.15B25,2013-08-16 22:42:00,
2013-08-16 17:43:00,69.5,63.8,30.05,SE,133,0.0,2.0,82,0.00,,,0.00,79,WeatherCatV1.15B25,2013-08-16 22:43:00,
2013-08-16 17:45:00,69.3,63.6,30.05,SE,133,0.0,4.0,82,0.00,,,0.00,95,WeatherCatV1.15B25,2013-08-16 22:45:00,
2013-08-16 17:48:00,69.2,63.5,30.05,SE,133,0.0,1.0,82,0.00,,,0.00,111,WeatherCatV1.15B25,2013-08-16 22:48:00,
2013-08-16 17:50:00,69.1,63.7,30.05,SE,133,0.0,1.0,83,0.00,,,0.00,125,WeatherCatV1.15B25,2013-08-16 22:50:00,
2013-08-16 17:51:00,69.1,63.7,30.05,SE,133,0.0,1.0,83,0.00,,,0.00,125,WeatherCatV1.15B25,2013-08-16 22:51:00,
2013-08-16 17:53:00,69.2,63.8,30.05,SE,133,0.0,0.0,83,0.00,,,0.00,125,WeatherCatV1.15B25,2013-08-16 22:53:00,
2013-08-16 17:56:00,69.2,63.8,30.05,SE,133,1.0,3.0,83,0.00,,,0.00,123,WeatherCatV1.15B25,2013-08-16 22:56:00,
2013-08-16 17:58:00,69.1,63.7,30.05,SE,133,0.0,2.0,83,0.00,,,0.00,127,WeatherCatV1.15B25,2013-08-16 22:58:00,
2013-08-16 17:59:00,69.1,63.7,30.05,SE,133,0.0,2.0,83,0.00,,,0.00,130,WeatherCatV1.15B25,2013-08-16 22:59:00,
2013-08-16 18:01:00,69.1,63.7,30.05,SE,133,0.0,1.0,83,0.00,,,0.00,135,WeatherCatV1.15B25,2013-08-16 23:01:00,
2013-08-16 18:03:00,69.1,63.7,30.05,SE,133,0.0,3.0,83,0.00,,,0.00,127,WeatherCatV1.15B25,2013-08-16 23:03:00,
2013-08-16 18:04:00,69.1,63.7,30.05,SE,133,0.0,3.0,83,0.00,,,0.00,127,WeatherCatV1.15B25,2013-08-16 23:04:00,
2013-08-16 18:06:00,69.0,63.6,30.05,SE,133,0.0,5.0,83,0.00,,,0.00,113,WeatherCatV1.15B25,2013-08-16 23:06:00,
2013-08-16 18:08:00,69.0,63.6,30.05,SE,133,1.0,6.0,83,0.00,,,0.00,107,WeatherCatV1.15B25,2013-08-16 23:08:00,
2013-08-16 18:09:00,69.0,63.6,30.05,SE,133,1.0,6.0,83,0.00,,,0.00,107,WeatherCatV1.15B25,2013-08-16 23:09:00,
2013-08-16 18:11:00,68.9,63.5,30.05,SE,133,0.0,0.0,83,0.00,,,0.00,105,WeatherCatV1.15B25,2013-08-16 23:11:00,
2013-08-16 18:14:00,68.9,63.5,30.05,SE,133,0.0,0.0,83,0.00,,,0.00,104,WeatherCatV1.15B25,2013-08-16 23:14:00,
2013-08-16 18:16:00,68.9,63.5,30.05,SE,133,2.0,2.0,83,0.00,,,0.00,102,WeatherCatV1.15B25,2013-08-16 23:16:00,
2013-08-16 18:17:00,68.9,63.5,30.05,SE,133,0.0,3.0,83,0.00,,,0.00,100,WeatherCatV1.15B25,2013-08-16 23:17:00,
2013-08-16 18:19:00,68.9,63.5,30.05,SE,133,2.0,4.0,83,0.00,,,0.00,98,WeatherCatV1.15B25,2013-08-16 23:19:00,
2013-08-16 18:20:00,68.9,63.5,30.05,SE,133,3.0,4.0,83,0.00,,,0.00,95,WeatherCatV1.15B25,2013-08-16 23:20:00,
2013-08-16 18:21:00,68.8,63.4,30.05,SE,133,0.0,3.0,83,0.00,,,0.00,91,WeatherCatV1.15B25,2013-08-16 23:21:00,
2013-08-16 18:22:00,68.8,63.4,30.05,SE,133,0.0,0.0,83,0.00,,,0.00,91,WeatherCatV1.15B25,2013-08-16 23:22:00,
2013-08-16 18:24:00,68.8,63.4,30.05,SE,133,0.0,3.0,83,0.00,,,0.00,93,WeatherCatV1.15B25,2013-08-16 23:24:00,
2013-08-16 18:25:00,68.8,63.4,30.05,SE,133,2.0,2.0,83,0.00,,,0.00,93,WeatherCatV1.15B25,2013-08-16 23:25:00,
2013-08-16 18:27:00,68.7,63.7,30.05,SE,133,0.0,1.0,84,0.00,,,0.00,86,WeatherCatV1.15B25,2013-08-16 23:27:00,
2013-08-16 18:29:00,68.7,63.7,30.05,SE,133,2.0,2.0,84,0.00,,,0.00,81,WeatherCatV1.15B25,2013-08-16 23:29:00,
2013-08-16 18:30:00,68.7,63.7,30.05,SE,133,0.0,2.0,84,0.00,,,0.00,83,WeatherCatV1.15B25,2013-08-16 23:30:00,
2013-08-16 18:32:00,68.7,63.7,30.05,SE,133,0.0,4.0,84,0.00,,,0.00,86,WeatherCatV1.15B25,2013-08-16 23:32:00,
2013-08-16 18:33:00,68.6,63.6,30.05,SE,133,0.0,3.0,84,0.00,,,0.00,90,WeatherCatV1.15B25,2013-08-16 23:33:00,
2013-08-16 18:34:00,68.6,63.6,30.05,SE,133,0.0,0.0,84,0.00,,,0.00,97,WeatherCatV1.15B25,2013-08-16 23:34:00,
2013-08-16 18:35:00,68.6,63.6,30.05,SE,133,0.0,0.0,84,0.00,,,0.00,97,WeatherCatV1.15B25,2013-08-16 23:35:00,
2013-08-16 18:37:00,68.6,63.6,30.05,SE,133,0.0,3.0,84,0.00,,,0.00,102,WeatherCatV1.15B25,2013-08-16 23:37:00,
2013-08-16 18:38:00,68.6,63.6,30.05,SE,133,0.0,3.0,84,0.00,,,0.00,104,WeatherCatV1.15B25,2013-08-16 23:38:00,
2013-08-16 18:39:00,68.6,63.6,30.05,SE,133,1.0,5.0,84,0.00,,,0.00,111,WeatherCatV1.15B25,2013-08-16 23:39:00,
2013-08-16 18:40:00,68.6,63.6,30.05,SE,133,0.0,5.0,84,0.00,,,0.00,120,WeatherCatV1.15B25,2013-08-16 23:40:00,
2013-08-16 18:42:00,68.6,63.6,30.05,SE,133,0.0,1.0,84,0.00,,,0.00,163,WeatherCatV1.15B25,2013-08-16 23:42:00,
2013-08-16 18:44:00,68.6,63.6,30.05,SE,133,3.0,5.0,84,0.00,,,0.00,163,WeatherCatV1.15B25,2013-08-16 23:44:00,
2013-08-16 18:45:00,68.6,63.6,30.04,SE,133,0.0,5.0,84,0.00,,,0.00,165,WeatherCatV1.15B25,2013-08-16 23:45:00,
2013-08-16 18:46:00,68.7,63.7,30.04,SE,133,0.0,3.0,84,0.00,,,0.00,165,WeatherCatV1.15B25,2013-08-16 23:46:00,
2013-08-16 18:47:00,68.7,63.7,30.04,SE,133,0.0,2.0,84,0.00,,,0.00,165,WeatherCatV1.15B25,2013-08-16 23:47:00,
2013-08-16 18:49:00,68.8,63.4,30.05,SE,133,0.0,5.0,83,0.00,,,0.00,214,WeatherCatV1.15B25,2013-08-16 23:49:00,
2013-08-16 18:50:00,68.8,63.4,30.05,SE,133,2.0,5.0,83,0.00,,,0.00,174,WeatherCatV1.15B25,2013-08-16 23:50:00,
2013-08-16 18:51:00,68.8,63.4,30.04,SE,133,3.0,5.0,83,0.00,,,0.00,178,WeatherCatV1.15B25,2013-08-16 23:51:00,
2013-08-16 18:52:00,68.8,63.4,30.05,SE,133,2.0,6.0,83,0.00,,,0.00,176,WeatherCatV1.15B25,2013-08-16 23:52:00,
2013-08-16 18:54:00,68.8,63.4,30.04,SE,133,2.0,5.0,83,0.00,,,0.00,186,WeatherCatV1.15B25,2013-08-16 23:54:00,
2013-08-16 18:55:00,68.8,63.4,30.04,SE,133,2.0,4.0,83,0.00,,,0.00,163,WeatherCatV1.15B25,2013-08-16 23:55:00,
2013-08-16 18:56:00,68.8,63.4,30.04,SE,133,3.0,6.0,83,0.00,,,0.00,190,WeatherCatV1.15B25,2013-08-16 23:56:00,
2013-08-16 18:57:00,68.8,63.4,30.04,SE,131,5.0,8.0,83,0.00,,,0.00,207,WeatherCatV1.15B25,2013-08-16 23:57:00,
2013-08-16 18:59:00,68.8,63.4,30.04,SE,130,5.0,6.0,83,0.00,,,0.00,171,WeatherCatV1.15B25,2013-08-16 23:59:00,
2013-08-16 19:00:00,68.8,63.4,30.04,SE,129,2.0,6.0,83,0.00,,,0.00,153,WeatherCatV1.15B25,2013-08-17 00:00:00,
2013-08-16 19:01:00,68.8,63.4,30.04,SE,129,0.0,2.0,83,0.00,,,0.00,158,WeatherCatV1.15B25,2013-08-17 00:01:00,
2013-08-16 19:02:00,68.8,63.4,30.04,SE,129,1.0,4.0,83,0.00,,,0.00,135,WeatherCatV1.15B25,2013-08-17 00:02:00,
2013-08-16 19:04:00,68.8,63.4,30.04,SE,129,0.0,3.0,83,0.00,,,0.00,132,WeatherCatV1.15B25,2013-08-17 00:04:00,
2013-08-16 19:05:00,68.9,63.5,30.04,SE,129,3.0,3.0,83,0.00,,,0.00,111,WeatherCatV1.15B25,2013-08-17 00:05:00,
2013-08-16 19:06:00,68.9,63.5,30.04,SE,129,6.0,6.0,83,0.00,,,0.00,111,WeatherCatV1.15B25,2013-08-17 00:06:00,
2013-08-16 19:07:00,68.8,63.4,30.04,SE,129,2.0,6.0,83,0.00,,,0.00,132,WeatherCatV1.15B25,2013-08-17 00:07:00,
2013-08-16 19:09:00,68.8,63.4,30.05,SE,129,0.0,3.0,83,0.00,,,0.00,171,WeatherCatV1.15B25,2013-08-17 00:09:00,
2013-08-16 19:10:00,68.9,63.5,30.05,SE,129,2.0,8.0,83,0.00,,,0.00,156,WeatherCatV1.15B25,2013-08-17 00:10:00,
2013-08-16 19:11:00,68.9,63.5,30.05,SE,129,2.0,8.0,83,0.00,,,0.00,141,WeatherCatV1.15B25,2013-08-17 00:11:00,
2013-08-16 19:12:00,68.9,63.5,30.05,SE,129,0.0,3.0,83,0.00,,,0.00,95,WeatherCatV1.15B25,2013-08-17 00:12:00,
2013-08-16 19:14:00,69.0,63.6,30.04,SE,129,1.0,1.0,83,0.00,,,0.00,77,WeatherCatV1.15B25,2013-08-17 00:14:00,
2013-08-16 19:15:00,68.9,63.5,30.04,SE,129,5.0,6.0,83,0.00,,,0.00,65,WeatherCatV1.15B25,2013-08-17 00:15:00,
2013-08-16 19:16:00,68.9,63.5,30.05,SE,129,1.0,6.0,83,0.00,,,0.00,65,WeatherCatV1.15B25,2013-08-17 00:16:00,
2013-08-16 19:17:00,68.8,63.4,30.05,SE,129,2.0,6.0,83,0.00,,,0.00,63,WeatherCatV1.15B25,2013-08-17 00:17:00,
2013-08-16 19:19:00,68.7,63.3,30.04,SE,129,3.0,7.0,83,0.00,,,0.00,69,WeatherCatV1.15B25,2013-08-17 00:19:00,
2013-08-16 19:21:00,68.6,63.2,30.04,SE,129,3.0,5.0,83,0.00,,,0.00,72,WeatherCatV1.15B25,2013-08-17 00:21:00,
2013-08-16 19:22:00,68.5,63.1,30.04,SE,129,0.0,5.0,83,0.00,,,0.00,81,WeatherCatV1.15B25,2013-08-17 00:22:00,
2013-08-16 19:23:00,68.5,63.1,30.05,SE,129,0.0,1.0,83,0.00,,,0.00,86,WeatherCatV1.15B25,2013-08-17 00:23:00,
2013-08-16 19:24:00,68.5,63.1,30.05,SE,129,3.0,3.0,83,0.00,,,0.00,95,WeatherCatV1.15B25,2013-08-17 00:24:00,
2013-08-16 19:26:00,68.5,63.1,30.05,SE,129,0.0,4.0,83,0.00,,,0.00,95,WeatherCatV1.15B25,2013-08-17 00:26:00,
2013-08-16 19:27:00,68.5,63.1,30.05,SE,129,0.0,4.0,83,0.00,,,0.00,90,WeatherCatV1.15B25,2013-08-17 00:27:00,
2013-08-16 19:28:00,68.5,63.1,30.05,SE,129,0.0,2.0,83,0.00,,,0.00,84,WeatherCatV1.15B25,2013-08-17 00:28:00,
2013-08-16 19:29:00,68.5,63.1,30.05,SE,129,0.0,2.0,83,0.00,,,0.00,74,WeatherCatV1.15B25,2013-08-17 00:29:00,
2013-08-16 19:31:00,68.5,63.1,30.04,SE,129,0.0,2.0,83,0.00,,,0.00,70,WeatherCatV1.15B25,2013-08-17 00:31:00,
2013-08-16 19:32:00,68.5,63.5,30.04,SE,129,0.0,1.0,84,0.00,,,0.00,72,WeatherCatV1.15B25,2013-08-17 00:32:00,
2013-08-16 19:33:00,68.5,63.5,30.04,SE,129,0.0,0.0,84,0.00,,,0.00,74,WeatherCatV1.15B25,2013-08-17 00:33:00,
2013-08-16 19:35:00,68.5,63.5,30.04,SE,129,0.0,0.0,84,0.00,,,0.00,76,WeatherCatV1.15B25,2013-08-17 00:35:00,
2013-08-16 19:36:00,68.6,63.6,30.04,SE,129,0.0,0.0,84,0.00,,,0.00,74,WeatherCatV1.15B25,2013-08-17 00:36:00,
2013-08-16 19:37:00,68.6,63.6,30.05,SE,129,0.0,0.0,84,0.00,,,0.00,72,WeatherCatV1.15B25,2013-08-17 00:37:00,
2013-08-16 19:38:00,68.6,63.6,30.04,SE,129,0.0,0.0,84,0.00,,,0.00,65,WeatherCatV1.15B25,2013-08-17 00:38:00,
2013-08-16 19:39:00,68.6,63.6,30.04,SE,129,0.0,0.0,84,0.00,,,0.00,65,WeatherCatV1.15B25,2013-08-17 00:39:00,
2013-08-16 19:40:00,68.6,63.6,30.05,SE,129,0.0,1.0,84,0.00,,,0.00,56,WeatherCatV1.15B25,2013-08-17 00:40:00,
2013-08-16 19:41:00,68.6,63.6,30.05,SE,129,1.0,1.0,84,0.00,,,0.00,54,WeatherCatV1.15B25,2013-08-17 00:41:00,
2013-08-16 19:42:00,68.6,63.6,30.05,SE,129,0.0,1.0,84,0.00,,,0.00,53,WeatherCatV1.15B25,2013-08-17 00:42:00,
2013-08-16 19:43:00,68.6,63.6,30.05,SE,129,0.0,0.0,84,0.00,,,0.00,49,WeatherCatV1.15B25,2013-08-17 00:43:00,
2013-08-16 19:44:00,68.6,63.6,30.05,SE,129,0.0,3.0,84,0.00,,,0.00,46,WeatherCatV1.15B25,2013-08-17 00:44:00,
2013-08-16 19:45:00,68.6,63.2,30.05,SE,129,0.0,3.0,83,0.00,,,0.00,42,WeatherCatV1.15B25,2013-08-17 00:45:00,
2013-08-16 19:46:00,68.6,63.2,30.05,SE,129,0.0,0.0,83,0.00,,,0.00,37,WeatherCatV1.15B25,2013-08-17 00:46:00,
2013-08-16 19:47:00,68.6,63.2,30.05,SE,129,0.0,0.0,83,0.00,,,0.00,33,WeatherCatV1.15B25,2013-08-17 00:47:00,
2013-08-16 19:48:00,68.6,63.2,30.05,SE,129,0.0,0.0,83,0.00,,,0.00,30,WeatherCatV1.15B25,2013-08-17 00:48:00,
2013-08-16 19:49:00,68.6,63.2,30.05,SE,129,0.0,3.0,83,0.00,,,0.00,26,WeatherCatV1.15B25,2013-08-17 00:49:00,
2013-08-16 19:50:00,68.6,63.2,30.05,SE,129,0.0,1.0,83,0.00,,,0.00,19,WeatherCatV1.15B25,2013-08-17 00:50:00,
2013-08-16 19:51:00,68.6,63.2,30.05,SE,129,0.0,1.0,83,0.00,,,0.00,18,WeatherCatV1.15B25,2013-08-17 00:51:00,
2013-08-16 19:52:00,68.6,63.2,30.05,SE,129,3.0,3.0,83,0.00,,,0.00,16,WeatherCatV1.15B25,2013-08-17 00:52:00,
2013-08-16 19:53:00,68.5,63.1,30.05,SE,129,0.0,3.0,83,0.00,,,0.00,14,WeatherCatV1.15B25,2013-08-17 00:53:00,
2013-08-16 19:54:00,68.5,63.1,30.05,SE,129,0.0,3.0,83,0.00,,,0.00,12,WeatherCatV1.15B25,2013-08-17 00:54:00,
2013-08-16 19:55:00,68.5,63.1,30.05,SE,129,0.0,1.0,83,0.00,,,0.00,12,WeatherCatV1.15B25,2013-08-17 00:55:00,
2013-08-16 19:56:00,68.5,63.1,30.05,SE,129,0.0,0.0,83,0.00,,,0.00,11,WeatherCatV1.15B25,2013-08-17 00:56:00,
2013-08-16 19:58:00,68.5,63.1,30.05,SE,129,0.0,0.0,83,0.00,,,0.00,9,WeatherCatV1.15B25,2013-08-17 00:58:00,
2013-08-16 19:59:00,68.5,63.1,30.05,SE,129,0.0,1.0,83,0.00,,,0.00,9,WeatherCatV1.15B25,2013-08-17 00:59:00,
2013-08-16 20:01:00,68.5,63.1,30.05,SE,129,0.0,1.0,83,0.00,,,0.00,9,WeatherCatV1.15B25,2013-08-17 01:01:00,
2013-08-16 20:03:00,68.5,63.1,30.05,SE,129,3.0,3.0,83,0.00,,,0.00,9,WeatherCatV1.15B25,2013-08-17 01:03:00,
2013-08-16 20:04:00,68.5,63.1,30.06,SE,129,2.0,3.0,83,0.00,,,0.00,9,WeatherCatV1.15B25,2013-08-17 01:04:00,
2013-08-16 20:06:00,68.5,63.1,30.05,SE,129,2.0,2.0,83,0.00,,,0.00,9,WeatherCatV1.15B25,2013-08-17 01:06:00,
2013-08-16 20:07:00,68.5,63.1,30.05,SE,129,0.0,2.0,83,0.00,,,0.00,9,WeatherCatV1.15B25,2013-08-17 01:07:00,
2013-08-16 20:08:00,68.4,63.0,30.05,SE,129,0.0,0.0,83,0.00,,,0.00,7,WeatherCatV1.15B25,2013-08-17 01:08:00,
2013-08-16 20:10:00,68.4,63.0,30.06,SE,129,1.0,2.0,83,0.00,,,0.00,7,WeatherCatV1.15B25,2013-08-17 01:10:00,
2013-08-16 20:11:00,68.4,63.0,30.06,SE,129,1.0,3.0,83,0.00,,,0.00,7,WeatherCatV1.15B25,2013-08-17 01:11:00,
2013-08-16 20:12:00,68.4,63.0,30.06,SE,129,0.0,3.0,83,0.00,,,0.00,7,WeatherCatV1.15B25,2013-08-17 01:12:00,
2013-08-16 20:13:00,68.4,63.0,30.06,SE,129,1.0,3.0,83,0.00,,,0.00,7,WeatherCatV1.15B25,2013-08-17 01:13:00,
2013-08-16 20:14:00,68.4,63.0,30.06,SE,129,1.0,3.0,83,0.00,,,0.00,7,WeatherCatV1.15B25,2013-08-17 01:14:00,
2013-08-16 20:15:00,68.3,63.3,30.06,SE,129,0.0,3.0,84,0.00,,,0.00,7,WeatherCatV1.15B25,2013-08-17 01:15:00,
2013-08-16 20:16:00,68.4,63.4,30.06,SE,129,0.0,3.0,84,0.00,,,0.00,7,WeatherCatV1.15B25,2013-08-17 01:16:00,
2013-08-16 20:17:00,68.4,63.4,30.06,SE,129,0.0,3.0,84,0.00,,,0.00,7,WeatherCatV1.15B25,2013-08-17 01:17:00,
2013-08-16 20:18:00,68.3,63.3,30.06,SE,129,0.0,2.0,84,0.00,,,0.00,5,WeatherCatV1.15B25,2013-08-17 01:18:00,
2013-08-16 20:19:00,68.3,63.3,30.06,SE,129,1.0,3.0,84,0.00,,,0.00,5,WeatherCatV1.15B25,2013-08-17 01:19:00,
2013-08-16 20:20:00,68.3,63.3,30.06,SE,129,0.0,3.0,84,0.00,,,0.00,5,WeatherCatV1.15B25,2013-08-17 01:20:00,
2013-08-16 20:21:00,68.3,63.3,30.06,SE,129,4.0,6.0,84,0.00,,,0.00,5,WeatherCatV1.15B25,2013-08-17 01:21:00,
2013-08-16 20:22:00,68.2,63.2,30.06,SE,129,1.0,6.0,84,0.00,,,0.00,0,WeatherCatV1.15B25,2013-08-17 01:22:00,
2013-08-16 20:23:00,68.2,63.2,30.05,SE,129,0.0,0.0,84,0.00,,,0.00,0,WeatherCatV1.15B25,2013-08-17 01:23:00,
2013-08-16 20:24:00,68.2,63.2,30.06,SE,129,0.0,0.0,84,0.00,,,0.00,0,WeatherCatV1.15B25,2013-08-17 01:24:00,
2013-08-16 20:25:00,68.2,63.2,30.06,SE,129,2.0,2.0,84,0.00,,,0.00,0,WeatherCatV1.15B25,2013-08-17 01:25:00,
2013-08-16 20:26:00,68.1,63.4,30.06,SE,129,3.0,5.0,85,0.00,,,0.00,0,WeatherCatV1.15B25,2013-08-17 01:26:00,
2013-08-16 20:27:00,68.1,63.4,30.06,SE,129,0.0,5.0,85,0.00,,,0.00,0,WeatherCatV1.15B25,2013-08-17 01:27:00,
2013-08-16 20:29:00,68.1,63.4,30.06,SE,129,1.0,2.0,85,0.00,,,0.00,0,WeatherCatV1.15B25,2013-08-17 01:29:00,
2013-08-16 20:31:00,68.1,63.4,30.06,SE,129,2.0,2.0,85,0.00,,,0.00,0,WeatherCatV1.15B25,2013-08-17 01:31:00,
2013-08-16 20:32:00,68.1,63.4,30.06,SE,129,0.0,3.0,85,0.00,,,0.00,0,WeatherCatV1.15B25,2013-08-17 01:32:00,
2013-08-16 20:34:00,68.0,63.3,30.06,SE,129,0.0,4.0,85,0.00,,,0.00,0,WeatherCatV1.15B25,2013-08-17 01:34:00,
2013-08-16 20:35:00,68.0,63.3,30.06,SE,129,1.0,4.0,85,0.00,,,0.00,0,WeatherCatV1.15B25,2013-08-17 01:35:00,
2013-08-16 20:36:00,68.0,63.3,30.06,SE,129,0.0,3.0,85,0.00,,,0.00,0,WeatherCatV1.15B25,2013-08-17 01:36:00,
2013-08-16 20:37:00,68.0,63.3,30.06,SE,128,0.0,1.0,85,0.00,,,0.00,0,WeatherCatV1.15B25,2013-08-17 01:37:00,
2013-08-16 20:39:00,68.0,63.6,30.06,SE,129,0.0,0.0,86,0.00,,,0.00,0,WeatherCatV1.15B25,2013-08-17 01:39:00,
2013-08-16 20:40:00,68.0,63.6,30.06,SE,129,1.0,2.0,86,0.00,,,0.00,0,WeatherCatV1.15B25,2013-08-17 01:40:00,
2013-08-16 20:41:00,68.0,63.6,30.06,SE,129,0.0,3.0,86,0.00,,,0.00,0,WeatherCatV1.15B25,2013-08-17 01:41:00,
2013-08-16 20:42:00,68.0,63.6,30.06,SE,129,0.0,3.0,86,0.00,,,0.00,0,WeatherCatV1.15B25,2013-08-17 01:42:00,
2013-08-16 20:44:00,67.9,63.5,30.06,SE,129,2.0,2.0,86,0.00,,,0.00,0,WeatherCatV1.15B25,2013-08-17 01:44:00,
2013-08-16 20:45:00,67.9,63.5,30.06,SE,129,0.0,2.0,86,0.00,,,0.00,0,WeatherCatV1.15B25,2013-08-17 01:45:00,
2013-08-16 20:46:00,67.9,63.5,30.06,SE,129,0.0,2.0,86,0.00,,,0.00,0,WeatherCatV1.15B25,2013-08-17 01:46:00,
2013-08-16 20:47:00,67.9,63.5,30.06,SE,129,0.0,0.0,86,0.00,,,0.00,0,WeatherCatV1.15B25,2013-08-17 01:47:00,
2013-08-16 20:48:00,67.9,63.5,30.06,SE,129,0.0,0.0,86,0.00,,,0.00,0,WeatherCatV1.15B25,2013-08-17 01:48:00,
2013-08-16 20:50:00,67.9,63.5,30.06,SE,129,0.0,1.0,86,0.00,,,0.00,0,WeatherCatV1.15B25,2013-08-17 01:50:00,
2013-08-16 20:51:00,67.9,63.5,30.06,SE,129,0.0,0.0,86,0.00,,,0.00,0,WeatherCatV1.15B25,2013-08-17 01:51:00,
2013-08-16 20:52:00,67.9,63.5,30.06,SE,129,0.0,3.0,86,0.00,,,0.00,0,WeatherCatV1.15B25,2013-08-17 01:52:00,
2013-08-16 20:53:00,67.9,63.5,30.06,SE,129,0.0,3.0,86,0.00,,,0.00,0,WeatherCatV1.15B25,2013-08-17 01:53:00,
2013-08-16 20:55:00,67.8,63.5,30.06,SE,129,0.0,4.0,86,0.00,,,0.00,0,WeatherCatV1.15B25,2013-08-17 01:55:00,
2013-08-16 20:56:00,67.8,63.5,30.06,SE,129,0.0,0.0,86,0.00,,,0.00,0,WeatherCatV1.15B25,2013-08-17 01:56:00,
2013-08-16 20:58:00,67.8,63.5,30.06,SE,129,0.0,0.0,86,0.00,,,0.00,0,WeatherCatV1.15B25,2013-08-17 01:58:00,
2013-08-16 21:01:00,67.7,63.4,30.06,SE,128,0.0,5.0,86,0.00,,,0.00,0,WeatherCatV1.15B25,2013-08-17 02:01:00,
2013-08-16 21:03:00,67.7,63.7,30.06,SE,129,1.0,3.0,87,0.00,,,0.00,0,WeatherCatV1.15B25,2013-08-17 02:03:00,
2013-08-16 21:06:00,67.7,63.7,30.06,SE,129,3.0,3.0,87,0.00,,,0.00,0,WeatherCatV1.15B25,2013-08-17 02:06:00,
2013-08-16 21:08:00,67.7,63.7,30.06,SE,129,1.0,6.0,87,0.00,,,0.00,0,WeatherCatV1.15B25,2013-08-17 02:08:00,
2013-08-16 21:11:00,67.7,63.7,30.06,SE,129,1.0,6.0,87,0.00,,,0.00,0,WeatherCatV1.15B25,2013-08-17 02:11:00,
2013-08-16 21:13:00,67.6,63.6,30.06,SE,128,1.0,4.0,87,0.00,,,0.00,0,WeatherCatV1.15B25,2013-08-17 02:13:00,
2013-08-16 21:14:00,67.6,63.6,30.07,SE,128,0.0,5.0,87,0.00,,,0.00,0,WeatherCatV1.15B25,2013-08-17 02:14:00,
2013-08-16 21:16:00,67.6,63.6,30.07,SE,128,0.0,5.0,87,0.00,,,0.00,0,WeatherCatV1.15B25,2013-08-17 02:16:00,
2013-08-16 21:18:00,67.6,63.6,30.07,SE,128,0.0,3.0,87,0.00,,,0.00,0,WeatherCatV1.15B25,2013-08-17 02:18:00,
2013-08-16 21:19:00,67.6,63.6,30.06,SE,128,4.0,5.0,87,0.00,,,0.00,0,WeatherCatV1.15B25,2013-08-17 02:19:00,
2013-08-16 21:21:00,67.5,63.5,30.06,SE,128,3.0,5.0,87,0.00,,,0.00,0,WeatherCatV1.15B25,2013-08-17 02:21:00,
2013-08-16 21:22:00,67.5,63.5,30.06,SE,128,0.0,5.0,87,0.00,,,0.00,0,WeatherCatV1.15B25,2013-08-17 02:22:00,
2013-08-16 21:23:00,67.5,63.5,30.06,SE,128,0.0,5.0,87,0.00,,,0.00,0,WeatherCatV1.15B25,2013-08-17 02:23:00,
2013-08-16 21:24:00,67.5,63.5,30.06,SE,128,0.0,2.0,87,0.00,,,0.00,0,WeatherCatV1.15B25,2013-08-17 02:24:00,
2013-08-16 21:26:00,67.5,63.5,30.06,SE,128,0.0,5.0,87,0.00,,,0.00,0,WeatherCatV1.15B25,2013-08-17 02:26:00,
2013-08-16 21:27:00,67.5,63.5,30.07,SE,128,0.0,2.0,87,0.00,,,0.00,0,WeatherCatV1.15B25,2013-08-17 02:27:00,
2013-08-16 21:28:00,67.5,63.5,30.07,SE,128,1.0,2.0,87,0.00,,,0.00,0,WeatherCatV1.15B25,2013-08-17 02:28:00,
2013-08-16 21:29:00,67.4,63.4,30.07,SE,128,0.0,4.0,87,0.00,,,0.00,0,WeatherCatV1.15B25,2013-08-17 02:29:00,
2013-08-16 21:31:00,67.4,63.4,30.07,SE,128,3.0,7.0,87,0.00,,,0.00,0,WeatherCatV1.15B25,2013-08-17 02:31:00,
2013-08-16 21:32:00,67.4,63.4,30.07,SE,128,3.0,5.0,87,0.00,,,0.00,0,WeatherCatV1.15B25,2013-08-17 02:32:00,
2013-08-16 21:33:00,67.3,63.3,30.07,SE,128,0.0,5.0,87,0.00,,,0.00,0,WeatherCatV1.15B25,2013-08-17 02:33:00,
2013-08-16 21:35:00,67.3,63.3,30.07,SE,128,0.0,3.0,87,0.00,,,0.00,0,WeatherCatV1.15B25,2013-08-17 02:35:00,
2013-08-16 21:36:00,67.3,63.3,30.07,SE,128,2.0,4.0,87,0.00,,,0.00,0,WeatherCatV1.15B25,2013-08-17 02:36:00,
2013-08-16 21:37:00,67.3,63.3,30.07,SE,128,3.0,3.0,87,0.00,,,0.00,0,WeatherCatV1.15B25,2013-08-17 02:37:00,
2013-08-16 21:38:00,67.3,63.3,30.07,SE,128,2.0,7.0,87,0.00,,,0.00,0,WeatherCatV1.15B25,2013-08-17 02:38:00,
2013-08-16 21:40:00,67.3,63.3,30.07,SE,128,1.0,7.0,87,0.00,,,0.00,0,WeatherCatV1.15B25,2013-08-17 02:40:00,
2013-08-16 21:42:00,67.3,63.3,30.07,SE,128,1.0,5.0,87,0.00,,,0.00,0,WeatherCatV1.15B25,2013-08-17 02:42:00,
2013-08-16 21:43:00,67.4,63.4,30.07,SE,128,0.0,5.0,87,0.00,,,0.00,0,WeatherCatV1.15B25,2013-08-17 02:43:00,
2013-08-16 21:44:00,67.4,63.4,30.07,SE,128,0.0,5.0,87,0.00,,,0.00,0,WeatherCatV1.15B25,2013-08-17 02:44:00,
2013-08-16 21:45:00,67.4,63.4,30.07,SE,128,4.0,5.0,87,0.00,,,0.00,0,WeatherCatV1.15B25,2013-08-17 02:45:00,
2013-08-16 21:47:00,67.4,63.4,30.07,SE,128,2.0,5.0,87,0.00,,,0.00,0,WeatherCatV1.15B25,2013-08-17 02:47:00,
2013-08-16 21:49:00,67.4,63.1,30.07,SE,128,1.0,6.0,86,0.00,,,0.00,0,WeatherCatV1.15B25,2013-08-17 02:49:00,
2013-08-16 21:50:00,67.3,63.0,30.07,SE,128,1.0,2.0,86,0.00,,,0.00,0,WeatherCatV1.15B25,2013-08-17 02:50:00,
2013-08-16 21:52:00,67.3,63.0,30.07,SE,128,0.0,1.0,86,0.00,,,0.00,0,WeatherCatV1.15B25,2013-08-17 02:52:00,
2013-08-16 21:54:00,67.2,62.9,30.07,SE,128,0.0,4.0,86,0.00,,,0.00,0,WeatherCatV1.15B25,2013-08-17 02:54:00,
2013-08-16 21:55:00,67.2,63.2,30.07,SE,128,0.0,2.0,87,0.00,,,0.00,0,WeatherCatV1.15B25,2013-08-17 02:55:00,
2013-08-16 21:57:00,67.2,63.2,30.07,SE,128,0.0,5.0,87,0.00,,,0.00,0,WeatherCatV1.15B25,2013-08-17 02:57:00,
2013-08-16 21:59:00,67.1,63.1,30.07,SE,128,1.0,4.0,87,0.00,,,0.00,0,WeatherCatV1.15B25,2013-08-17 02:59:00,
2013-08-16 22:01:00,67.0,63.0,30.07,SE,128,2.0,7.0,87,0.00,,,0.00,0,WeatherCatV1.15B25,2013-08-17 03:01:00,
2013-08-16 22:02:00,67.0,63.0,30.07,SE,128,0.0,9.0,87,0.00,,,0.00,0,WeatherCatV1.15B25,2013-08-17 03:02:00,
2013-08-16 22:04:00,67.0,63.0,30.07,SE,128,3.0,3.0,87,0.00,,,0.00,0,WeatherCatV1.15B25,2013-08-17 03:04:00,
2013-08-16 22:06:00,67.0,63.0,30.07,SE,128,2.0,4.0,87,0.00,,,0.00,0,WeatherCatV1.15B25,2013-08-17 03:06:00,
2013-08-16 22:07:00,66.9,62.9,30.07,SE,129,2.0,6.0,87,0.00,,,0.00,0,WeatherCatV1.15B25,2013-08-17 03:07:00,
2013-08-16 22:09:00,66.9,62.9,30.07,SE,129,0.0,2.0,87,0.00,,,0.00,0,WeatherCatV1.15B25,2013-08-17 03:09:00,
2013-08-16 22:11:00,66.8,62.8,30.07,SE,130,0.0,4.0,87,0.00,,,0.00,0,WeatherCatV1.15B25,2013-08-17 03:11:00,
2013-08-16 22:12:00,66.8,62.8,30.07,SE,130,0.0,4.0,87,0.00,,,0.00,0,WeatherCatV1.15B25,2013-08-17 03:12:00,
2013-08-16 22:13:00,66.8,62.8,30.07,SE,130,0.0,4.0,87,0.00,,,0.00,0,WeatherCatV1.15B25,2013-08-17 03:13:00,
2013-08-16 22:14:00,66.7,62.7,30.07,SE,130,4.0,6.0,87,0.00,,,0.00,0,WeatherCatV1.15B25,2013-08-17 03:14:00,
2013-08-16 22:15:00,66.7,62.7,30.07,SE,130,4.0,6.0,87,0.00,,,0.00,0,WeatherCatV1.15B25,2013-08-17 03:15:00,
2013-08-16 22:16:00,66.6,62.6,30.07,SE,130,3.0,4.0,87,0.00,,,0.00,0,WeatherCatV1.15B25,2013-08-17 03:16:00,
2013-08-16 22:17:00,66.5,62.5,30.07,SE,130,0.0,4.0,87,0.00,,,0.00,0,WeatherCatV1.15B25,2013-08-17 03:17:00,
2013-08-16 22:18:00,66.5,62.5,30.07,SE,130,2.0,7.0,87,0.00,,,0.00,0,WeatherCatV1.15B25,2013-08-17 03:18:00,
2013-08-16 22:19:00,66.4,62.4,30.07,SE,130,0.0,7.0,87,0.00,,,0.00,0,WeatherCatV1.15B25,2013-08-17 03:19:00,
2013-08-16 22:20:00,66.4,62.4,30.07,SE,130,5.0,5.0,87,0.00,,,0.00,0,WeatherCatV1.15B25,2013-08-17 03:20:00,
2013-08-16 22:21:00,66.3,62.3,30.07,SE,130,1.0,5.0,87,0.00,,,0.00,0,WeatherCatV1.15B25,2013-08-17 03:21:00,
2013-08-16 22:23:00,66.3,62.3,30.07,SE,130,1.0,5.0,87,0.00,,,0.00,0,WeatherCatV1.15B25,2013-08-17 03:23:00,
2013-08-16 22:24:00,66.2,62.2,30.07,SE,130,0.0,2.0,87,0.00,,,0.00,0,WeatherCatV1.15B25,2013-08-17 03:24:00,
2013-08-16 22:25:00,66.2,62.2,30.07,SE,130,0.0,2.0,87,0.00,,,0.00,0,WeatherCatV1.15B25,2013-08-17 03:25:00,
2013-08-16 22:27:00,66.2,62.2,30.07,SE,130,0.0,3.0,87,0.00,,,0.00,0,WeatherCatV1.15B25,2013-08-17 03:27:00,
2013-08-16 22:28:00,66.1,62.1,30.07,SE,130,1.0,10.0,87,0.00,,,0.00,0,WeatherCatV1.15B25,2013-08-17 03:28:00,
2013-08-16 22:29:00,66.1,62.1,30.07,SE,127,6.0,10.0,87,0.00,,,0.00,0,WeatherCatV1.15B25,2013-08-17 03:29:00,
2013-08-16 22:30:00,66.1,62.1,30.07,SE,126,0.0,7.0,87,0.00,,,0.00,0,WeatherCatV1.15B25,2013-08-17 03:30:00,
2013-08-16 22:31:00,66.1,62.1,30.07,SE,127,3.0,5.0,87,0.00,,,0.00,0,WeatherCatV1.15B25,2013-08-17 03:31:00,
2013-08-16 22:32:00,66.1,62.1,30.07,SE,126,5.0,5.0,87,0.00,,,0.00,0,WeatherCatV1.15B25,2013-08-17 03:32:00,
2013-08-16 22:33:00,66.0,62.0,30.07,SE,130,5.0,7.0,87,0.00,,,0.00,0,WeatherCatV1.15B25,2013-08-17 03:33:00,
2013-08-16 22:34:00,66.0,62.0,30.07,SE,129,1.0,7.0,87,0.00,,,0.00,0,WeatherCatV1.15B25,2013-08-17 03:34:00,
2013-08-16 22:35:00,66.0,62.0,30.07,SE,129,3.0,9.0,87,0.00,,,0.00,0,WeatherCatV1.15B25,2013-08-17 03:35:00,
2013-08-16 22:36:00,66.0,62.0,30.07,SE,130,1.0,9.0,87,0.00,,,0.00,0,WeatherCatV1.15B25,2013-08-17 03:36:00,
2013-08-16 22:37:00,66.0,62.0,30.07,SE,129,2.0,5.0,87,0.00,,,0.00,0,WeatherCatV1.15B25,2013-08-17 03:37:00,
2013-08-16 22:38:00,66.0,62.0,30.07,SE,130,0.0,5.0,87,0.00,,,0.00,0,WeatherCatV1.15B25,2013-08-17 03:38:00,
2013-08-16 22:39:00,66.0,62.0,30.07,SE,129,0.0,2.0,87,0.00,,,0.00,0,WeatherCatV1.15B25,2013-08-17 03:39:00,
2013-08-16 22:40:00,65.9,61.9,30.07,SE,130,3.0,6.0,87,0.00,,,0.00,0,WeatherCatV1.15B25,2013-08-17 03:40:00,
2013-08-16 22:41:00,65.9,61.9,30.07,SE,130,1.0,6.0,87,0.00,,,0.00,0,WeatherCatV1.15B25,2013-08-17 03:41:00,
2013-08-16 22:42:00,65.9,61.9,30.07,SE,129,0.0,6.0,87,0.00,,,0.00,0,WeatherCatV1.15B25,2013-08-17 03:42:00,
2013-08-16 22:43:00,65.9,61.9,30.07,SE,130,0.0,5.0,87,0.00,,,0.00,0,WeatherCatV1.15B25,2013-08-17 03:43:00,
2013-08-16 22:44:00,65.9,61.9,30.07,SE,130,1.0,6.0,87,0.00,,,0.00,0,WeatherCatV1.15B25,2013-08-17 03:44:00,
2013-08-16 22:45:00,65.8,61.8,30.07,SE,130,0.0,6.0,87,0.00,,,0.00,0,WeatherCatV1.15B25,2013-08-17 03:45:00,
2013-08-16 22:46:00,65.8,61.8,30.07,SE,130,2.0,6.0,87,0.00,,,0.00,0,WeatherCatV1.15B25,2013-08-17 03:46:00,
2013-08-16 22:47:00,65.8,61.8,30.07,SE,130,3.0,6.0,87,0.00,,,0.00,0,WeatherCatV1.15B25,2013-08-17 03:47:00,
2013-08-16 22:48:00,65.8,61.8,30.07,SE,130,0.0,6.0,87,0.00,,,0.00,0,WeatherCatV1.15B25,2013-08-17 03:48:00,
2013-08-16 22:49:00,65.7,61.7,30.07,SE,130,0.0,4.0,87,0.00,,,0.00,0,WeatherCatV1.15B25,2013-08-17 03:49:00,
2013-08-16 22:50:00,65.7,61.7,30.07,SE,130,3.0,4.0,87,0.00,,,0.00,0,WeatherCatV1.15B25,2013-08-17 03:50:00,
2013-08-16 22:51:00,65.7,61.7,30.07,SE,130,9.0,9.0,87,0.00,,,0.00,0,WeatherCatV1.15B25,2013-08-17 03:51:00,
2013-08-16 22:52:00,65.7,61.7,30.07,SE,129,0.0,9.0,87,0.00,,,0.00,0,WeatherCatV1.15B25,2013-08-17 03:52:00,
2013-08-16 22:53:00,65.6,61.6,30.07,SE,130,3.0,9.0,87,0.00,,,0.00,0,WeatherCatV1.15B25,2013-08-17 03:53:00,
2013-08-16 22:54:00,65.6,61.6,30.07,SE,130,1.0,3.0,87,0.00,,,0.00,0,WeatherCatV1.15B25,2013-08-17 03:54:00,
2013-08-16 22:55:00,65.6,61.6,30.07,SE,130,5.0,9.0,87,0.00,,,0.00,0,WeatherCatV1.15B25,2013-08-17 03:55:00,
2013-08-16 22:57:00,65.6,61.6,30.07,SE,129,1.0,2.0,87,0.00,,,0.00,0,WeatherCatV1.15B25,2013-08-17 03:57:00,
2013-08-16 22:58:00,65.5,61.5,30.07,SE,130,2.0,6.0,87,0.00,,,0.00,0,WeatherCatV1.15B25,2013-08-17 03:58:00,
2013-08-16 22:59:00,65.5,61.5,30.07,SE,129,0.0,6.0,87,0.00,,,0.00,0,WeatherCatV1.15B25,2013-08-17 03:59:00,
2013-08-16 23:00:00,65.5,61.8,30.07,SE,130,3.0,3.0,88,0.00,,,0.00,0,WeatherCatV1.15B25,2013-08-17 04:00:00,
2013-08-16 23:01:00,65.5,61.8,30.07,SE,130,4.0,5.0,88,0.00,,,0.00,0,WeatherCatV1.15B25,2013-08-17 04:01:00,
2013-08-16 23:06:00,65.4,61.7,30.07,SE,131,4.0,5.0,88,0.00,,,0.00,0,WeatherCatV1.15B25,2013-08-17 04:06:00,
2013-08-16 23:11:00,65.4,61.7,30.08,SE,131,2.0,4.0,88,0.00,,,0.00,0,WeatherCatV1.15B25,2013-08-17 04:11:00,
2013-08-16 23:16:00,65.4,61.7,30.08,SE,130,0.0,7.0,88,0.00,,,0.00,0,WeatherCatV1.15B25,2013-08-17 04:16:00,
2013-08-16 23:17:00,65.4,61.7,30.08,SE,129,2.0,7.0,88,0.00,,,0.00,0,WeatherCatV1.15B25,2013-08-17 04:17:00,
2013-08-16 23:21:00,65.4,61.7,30.08,SE,132,0.0,9.0,88,0.00,,,0.00,0,WeatherCatV1.15B25,2013-08-17 04:21:00,
2013-08-16 23:22:00,65.4,61.7,30.08,SE,132,0.0,9.0,88,0.00,,,0.00,0,WeatherCatV1.15B25,2013-08-17 04:22:00,
2013-08-16 23:26:00,65.3,61.3,30.07,SE,132,0.0,7.0,87,0.00,,,0.00,0,WeatherCatV1.15B25,2013-08-17 04:26:00,
2013-08-16 23:27:00,65.3,61.3,30.07,SE,133,5.0,7.0,87,0.00,,,0.00,0,WeatherCatV1.15B25,2013-08-17 04:27:00,
2013-08-16 23:31:00,65.2,61.2,30.08,SE,132,1.0,5.0,87,0.00,,,0.00,0,WeatherCatV1.15B25,2013-08-17 04:31:00,
2013-08-16 23:32:00,65.2,61.2,30.08,SE,132,1.0,5.0,87,0.00,,,0.00,0,WeatherCatV1.15B25,2013-08-17 04:32:00,
2013-08-16 23:37:00,65.1,61.1,30.08,SE,132,0.0,5.0,87,0.00,,,0.00,0,WeatherCatV1.15B25,2013-08-17 04:37:00,
2013-08-16 23:42:00,65.0,61.0,30.08,SE,136,0.0,9.0,87,0.00,,,0.00,0,WeatherCatV1.15B25,2013-08-17 04:42:00,
2013-08-16 23:43:00,65.0,61.0,30.08,SE,136,5.0,7.0,87,0.00,,,0.00,0,WeatherCatV1.15B25,2013-08-17 04:43:00,
2013-08-16 23:47:00,64.9,60.9,30.08,SE,141,5.0,10.0,87,0.00,,,0.00,0,WeatherCatV1.15B25,2013-08-17 04:47:00,
2013-08-16 23:48:00,64.9,60.9,30.08,SE,141,0.0,10.0,87,0.00,,,0.00,0,WeatherCatV1.15B25,2013-08-17 04:48:00,
2013-08-16 23:52:00,64.9,60.9,30.08,SE,140,2.0,9.0,87,0.00,,,0.00,0,WeatherCatV1.15B25,2013-08-17 04:52:00,
2013-08-16 23:53:00,64.9,60.9,30.08,SE,140,4.0,6.0,87,0.00,,,0.00,0,WeatherCatV1.15B25,2013-08-17 04:53:00,
2013-08-16 23:54:00,64.9,60.9,30.08,SE,140,0.0,6.0,87,0.00,,,0.00,0,WeatherCatV1.15B25,2013-08-17 04:54:00,
2013-08-16 23:57:00,64.8,60.8,30.08,SE,140,2.0,4.0,87,0.00,,,0.00,0,WeatherCatV1.15B25,2013-08-17 04:57:00,
2013-08-16 23:58:00,64.8,60.8,30.08,SE,140,4.0,4.0,87,0.00,,,0.00,0,WeatherCatV1.15B25,2013-08-17 04:58:00,
2013-08-16 23:59:00,64.8,60.8,30.08,SE,140,3.0,3.0,87,0.00,,,0.00,0,WeatherCatV1.15B25,2013-08-17 04:59:00,